Time,TemperatureF,DewpointF,PressureIn,WindDirection,WindDirectionDegrees,WindSpeedMPH,WindSpeedGustMPH,Humidity,HourlyPrecipIn,Conditions,Clouds,dailyrainin,SoftwareType,DateUTC
2013-01-17 00:00:00,34.6,26.2,29.88,West,274,4.0,-999.0,71,0.00,,,0.00,Wunderground v.1.15,2013-01-17 05:00:00,
2013-01-17 00:03:00,34.6,26.2,29.89,WSW,239,1.0,-999.0,71,0.00,,,0.00,Wunderground v.1.15,2013-01-17 05:03:00,
2013-01-17 00:04:00,34.6,26.2,29.89,NW,305,3.0,-999.0,71,0.00,,,0.00,Wunderground v.1.15,2013-01-17 05:04:00,
2013-01-17 00:08:00,34.6,26.2,29.89,NW,316,3.0,-999.0,71,0.00,,,0.00,Wunderground v.1.15,2013-01-17 05:08:00,
2013-01-17 00:09:00,34.6,26.2,29.89,WNW,292,2.0,-999.0,71,0.00,,,0.00,Wunderground v.1.15,2013-01-17 05:09:00,
2013-01-17 00:11:00,34.6,26.2,29.89,SSW,205,0.0,-999.0,71,0.00,,,0.00,Wunderground v.1.15,2013-01-17 05:11:00,
2013-01-17 00:13:00,34.6,26.2,29.89,WNW,298,1.0,-999.0,71,0.00,,,0.00,Wunderground v.1.15,2013-01-17 05:13:00,
2013-01-17 00:14:00,34.6,26.2,29.89,NW,312,3.0,-999.0,71,0.00,,,0.00,Wunderground v.1.15,2013-01-17 05:14:00,
2013-01-17 00:17:00,34.6,26.2,29.89,WNW,289,3.0,-999.0,71,0.00,,,0.00,Wunderground v.1.15,2013-01-17 05:17:00,
2013-01-17 00:18:00,34.6,26.2,29.89,WNW,291,1.0,-999.0,71,0.00,,,0.00,Wunderground v.1.15,2013-01-17 05:18:00,
2013-01-17 00:20:00,34.6,26.2,29.89,NW,312,3.0,-999.0,71,0.00,,,0.00,Wunderground v.1.15,2013-01-17 05:20:00,
2013-01-17 00:24:00,34.6,26.2,29.89,NNW,335,5.0,-999.0,71,0.00,,,0.00,Wunderground v.1.15,2013-01-17 05:24:00,
2013-01-17 00:26:00,34.6,26.2,29.89,NW,311,6.0,-999.0,71,0.00,,,0.00,Wunderground v.1.15,2013-01-17 05:26:00,
2013-01-17 00:31:00,34.6,26.5,29.89,WNW,292,2.0,-999.0,72,0.00,,,0.00,Wunderground v.1.15,2013-01-17 05:31:00,
2013-01-17 00:32:00,34.6,26.5,29.89,WNW,296,2.0,-999.0,72,0.00,,,0.00,Wunderground v.1.15,2013-01-17 05:32:00,
2013-01-17 00:33:00,34.6,26.5,29.89,SW,230,0.0,-999.0,72,0.00,,,0.00,Wunderground v.1.15,2013-01-17 05:33:00,
2013-01-17 00:34:00,34.4,26.3,29.89,WSW,246,1.0,-999.0,72,0.00,,,0.00,Wunderground v.1.15,2013-01-17 05:34:00,
2013-01-17 00:39:00,34.4,26.3,29.89,NW,319,5.0,-999.0,72,0.00,,,0.00,Wunderground v.1.15,2013-01-17 05:39:00,
2013-01-17 00:40:00,34.4,26.3,29.89,WNW,287,0.0,-999.0,72,0.00,,,0.00,Wunderground v.1.15,2013-01-17 05:40:00,
2013-01-17 00:44:00,34.4,26.3,29.89,NW,326,3.0,-999.0,72,0.00,,,0.00,Wunderground v.1.15,2013-01-17 05:44:00,
2013-01-17 00:48:00,34.6,26.5,29.90,WNW,301,5.0,-999.0,72,0.00,,,0.00,Wunderground v.1.15,2013-01-17 05:48:00,
2013-01-17 00:49:00,34.6,26.5,29.90,West,275,2.0,-999.0,72,0.00,,,0.00,Wunderground v.1.15,2013-01-17 05:49:00,
2013-01-17 00:50:00,34.4,26.3,29.90,WNW,291,1.0,-999.0,72,0.00,,,0.00,Wunderground v.1.15,2013-01-17 05:50:00,
2013-01-17 00:53:00,34.4,26.3,29.90,WSW,241,2.0,-999.0,72,0.00,,,0.00,Wunderground v.1.15,2013-01-17 05:53:00,
2013-01-17 00:55:00,34.4,26.3,29.90,NW,323,6.0,-999.0,72,0.00,,,0.00,Wunderground v.1.15,2013-01-17 05:55:00,
2013-01-17 00:58:00,34.4,26.3,29.90,West,274,0.0,-999.0,72,0.00,,,0.00,Wunderground v.1.15,2013-01-17 05:58:00,
2013-01-17 01:00:00,34.4,26.3,29.91,SSW,213,3.0,-999.0,72,0.00,,,0.00,Wunderground v.1.15,2013-01-17 06:00:00,
2013-01-17 01:03:00,34.4,26.3,29.91,NW,305,4.0,-999.0,72,0.00,,,0.00,Wunderground v.1.15,2013-01-17 06:03:00,
2013-01-17 01:05:00,34.4,26.3,29.91,West,277,1.0,-999.0,72,0.00,,,0.00,Wunderground v.1.15,2013-01-17 06:05:00,
2013-01-17 01:06:00,34.4,26.3,29.91,SW,236,3.0,-999.0,72,0.00,,,0.00,Wunderground v.1.15,2013-01-17 06:06:00,
2013-01-17 01:07:00,34.4,26.3,29.91,WNW,301,4.0,-999.0,72,0.00,,,0.00,Wunderground v.1.15,2013-01-17 06:07:00,
2013-01-17 01:10:00,34.4,26.3,29.91,NW,313,3.0,-999.0,72,0.00,,,0.00,Wunderground v.1.15,2013-01-17 06:10:00,
2013-01-17 01:11:00,34.4,26.3,29.91,NW,309,0.0,-999.0,72,0.00,,,0.00,Wunderground v.1.15,2013-01-17 06:11:00,
2013-01-17 01:17:00,34.4,26.3,29.92,NW,306,6.0,-999.0,72,0.00,,,0.00,Wunderground v.1.15,2013-01-17 06:17:00,
2013-01-17 01:18:00,34.6,26.5,29.92,WNW,291,0.0,-999.0,72,0.00,,,0.00,Wunderground v.1.15,2013-01-17 06:18:00,
2013-01-17 01:21:00,34.6,26.5,29.92,NW,304,2.0,-999.0,72,0.00,,,0.00,Wunderground v.1.15,2013-01-17 06:21:00,
2013-01-17 01:22:00,34.6,26.5,29.92,NW,311,2.0,-999.0,72,0.00,,,0.00,Wunderground v.1.15,2013-01-17 06:22:00,
2013-01-17 01:23:00,34.6,26.5,29.92,NW,306,1.0,-999.0,72,0.00,,,0.00,Wunderground v.1.15,2013-01-17 06:23:00,
2013-01-17 01:26:00,34.4,26.3,29.92,West,278,1.0,-999.0,72,0.00,,,0.00,Wunderground v.1.15,2013-01-17 06:26:00,
2013-01-17 01:28:00,34.4,26.3,29.92,West,268,3.0,-999.0,72,0.00,,,0.00,Wunderground v.1.15,2013-01-17 06:28:00,
2013-01-17 01:30:00,34.4,26.3,29.92,West,260,2.0,-999.0,72,0.00,,,0.00,Wunderground v.1.15,2013-01-17 06:30:00,
2013-01-17 01:31:00,34.4,26.3,29.92,WNW,284,3.0,-999.0,72,0.00,,,0.00,Wunderground v.1.15,2013-01-17 06:31:00,
2013-01-17 01:35:00,34.4,26.3,29.92,WNW,287,5.0,-999.0,72,0.00,,,0.00,Wunderground v.1.15,2013-01-17 06:35:00,
2013-01-17 01:37:00,34.6,26.5,29.92,West,264,1.0,-999.0,72,0.00,,,0.00,Wunderground v.1.15,2013-01-17 06:37:00,
2013-01-17 01:38:00,34.6,26.5,29.92,WNW,298,3.0,-999.0,72,0.00,,,0.00,Wunderground v.1.15,2013-01-17 06:38:00,
2013-01-17 01:40:00,34.6,26.5,29.92,NW,308,0.0,-999.0,72,0.00,,,0.00,Wunderground v.1.15,2013-01-17 06:40:00,
2013-01-17 01:42:00,34.6,26.5,29.92,West,275,2.0,-999.0,72,0.00,,,0.00,Wunderground v.1.15,2013-01-17 06:42:00,
2013-01-17 01:43:00,34.6,26.5,29.92,WNW,301,3.0,-999.0,72,0.00,,,0.00,Wunderground v.1.15,2013-01-17 06:43:00,
2013-01-17 01:45:00,34.6,26.5,29.92,NW,319,2.0,-999.0,72,0.00,,,0.00,Wunderground v.1.15,2013-01-17 06:45:00,
2013-01-17 01:47:00,34.4,26.3,29.92,West,274,2.0,-999.0,72,0.00,,,0.00,Wunderground v.1.15,2013-01-17 06:47:00,
2013-01-17 01:49:00,34.4,26.3,29.92,NW,305,6.0,-999.0,72,0.00,,,0.00,Wunderground v.1.15,2013-01-17 06:49:00,
2013-01-17 01:50:00,34.4,26.3,29.92,WNW,299,2.0,-999.0,72,0.00,,,0.00,Wunderground v.1.15,2013-01-17 06:50:00,
2013-01-17 01:51:00,34.4,26.3,29.92,West,277,5.0,-999.0,72,0.00,,,0.00,Wunderground v.1.15,2013-01-17 06:51:00,
2013-01-17 01:55:00,34.6,26.5,29.92,WNW,287,3.0,-999.0,72,0.00,,,0.00,Wunderground v.1.15,2013-01-17 06:55:00,
2013-01-17 01:56:00,34.6,26.5,29.92,NW,319,3.0,-999.0,72,0.00,,,0.00,Wunderground v.1.15,2013-01-17 06:56:00,
2013-01-17 01:59:00,34.6,26.5,29.92,WNW,285,5.0,-999.0,72,0.00,,,0.00,Wunderground v.1.15,2013-01-17 06:59:00,
2013-01-17 02:00:00,34.6,26.5,29.93,NW,304,4.0,-999.0,72,0.00,,,0.00,Wunderground v.1.15,2013-01-17 07:00:00,
2013-01-17 02:01:00,34.6,26.5,29.93,West,271,0.0,-999.0,72,0.00,,,0.00,Wunderground v.1.15,2013-01-17 07:01:00,
2013-01-17 02:02:00,34.6,26.5,29.93,West,271,0.0,-999.0,72,0.00,,,0.00,Wunderground v.1.15,2013-01-17 07:02:00,
2013-01-17 02:04:00,34.6,26.2,29.93,NW,325,3.0,-999.0,71,0.00,,,0.00,Wunderground v.1.15,2013-01-17 07:04:00,
2013-01-17 02:05:00,34.6,26.2,29.93,West,281,1.0,-999.0,71,0.00,,,0.00,Wunderground v.1.15,2013-01-17 07:05:00,
2013-01-17 02:06:00,34.6,26.2,29.93,NW,316,0.0,-999.0,71,0.00,,,0.00,Wunderground v.1.15,2013-01-17 07:06:00,
2013-01-17 02:07:00,34.6,26.2,29.93,NW,316,0.0,-999.0,71,0.00,,,0.00,Wunderground v.1.15,2013-01-17 07:07:00,
2013-01-17 02:10:00,34.6,26.2,29.93,West,272,1.0,-999.0,71,0.00,,,0.00,Wunderground v.1.15,2013-01-17 07:10:00,
2013-01-17 02:12:00,34.6,26.2,29.93,NW,318,3.0,-999.0,71,0.00,,,0.00,Wunderground v.1.15,2013-01-17 07:12:00,
2013-01-17 02:15:00,34.6,26.5,29.93,NW,308,1.0,-999.0,72,0.00,,,0.00,Wunderground v.1.15,2013-01-17 07:15:00,
2013-01-17 02:16:00,34.6,26.5,29.94,WNW,301,2.0,-999.0,72,0.00,,,0.00,Wunderground v.1.15,2013-01-17 07:16:00,
2013-01-17 02:17:00,34.6,26.5,29.94,WNW,295,3.0,-999.0,72,0.00,,,0.00,Wunderground v.1.15,2013-01-17 07:17:00,
2013-01-17 02:20:00,34.6,26.5,29.94,NW,318,1.0,-999.0,72,0.00,,,0.00,Wunderground v.1.15,2013-01-17 07:20:00,
2013-01-17 02:21:00,34.6,26.5,29.94,WSW,243,5.0,-999.0,72,0.00,,,0.00,Wunderground v.1.15,2013-01-17 07:21:00,
2013-01-17 02:22:00,34.6,26.5,29.94,NNW,340,1.0,-999.0,72,0.00,,,0.00,Wunderground v.1.15,2013-01-17 07:22:00,
2013-01-17 02:24:00,34.6,26.5,29.94,WNW,288,1.0,-999.0,72,0.00,,,0.00,Wunderground v.1.15,2013-01-17 07:24:00,
2013-01-17 02:25:00,34.6,26.5,29.94,NW,308,5.0,-999.0,72,0.00,,,0.00,Wunderground v.1.15,2013-01-17 07:25:00,
2013-01-17 02:27:00,34.6,26.5,29.94,NW,312,3.0,-999.0,72,0.00,,,0.00,Wunderground v.1.15,2013-01-17 07:27:00,
2013-01-17 02:29:00,34.6,26.5,29.94,WNW,296,2.0,-999.0,72,0.00,,,0.00,Wunderground v.1.15,2013-01-17 07:29:00,
2013-01-17 02:30:00,34.6,26.5,29.95,West,278,3.0,-999.0,72,0.00,,,0.00,Wunderground v.1.15,2013-01-17 07:30:00,
2013-01-17 02:32:00,34.6,26.5,29.95,NW,306,3.0,-999.0,72,0.00,,,0.00,Wunderground v.1.15,2013-01-17 07:32:00,
2013-01-17 02:34:00,34.6,26.5,29.95,NW,304,3.0,-999.0,72,0.00,,,0.00,Wunderground v.1.15,2013-01-17 07:34:00,
2013-01-17 02:36:00,34.6,26.5,29.95,WNW,298,2.0,-999.0,72,0.00,,,0.00,Wunderground v.1.15,2013-01-17 07:36:00,
2013-01-17 02:38:00,34.6,26.5,29.95,NW,313,3.0,-999.0,72,0.00,,,0.00,Wunderground v.1.15,2013-01-17 07:38:00,
2013-01-17 02:39:00,34.6,26.5,29.95,West,272,1.0,-999.0,72,0.00,,,0.00,Wunderground v.1.15,2013-01-17 07:39:00,
2013-01-17 02:41:00,34.6,25.8,29.95,WNW,301,2.0,-999.0,70,0.00,,,0.00,Wunderground v.1.15,2013-01-17 07:41:00,
2013-01-17 02:43:00,34.6,25.8,29.95,WNW,301,4.0,-999.0,70,0.00,,,0.00,Wunderground v.1.15,2013-01-17 07:43:00,
2013-01-17 02:45:00,34.6,25.8,29.95,WNW,298,2.0,-999.0,70,0.00,,,0.00,Wunderground v.1.15,2013-01-17 07:45:00,
2013-01-17 02:46:00,34.6,25.8,29.95,WNW,298,2.0,-999.0,70,0.00,,,0.00,Wunderground v.1.15,2013-01-17 07:46:00,
2013-01-17 02:48:00,34.6,25.5,29.95,NW,306,1.0,-999.0,69,0.00,,,0.00,Wunderground v.1.15,2013-01-17 07:48:00,
2013-01-17 02:49:00,34.6,25.5,29.95,NW,306,1.0,-999.0,69,0.00,,,0.00,Wunderground v.1.15,2013-01-17 07:49:00,
2013-01-17 02:51:00,34.4,25.3,29.95,WNW,296,3.0,-999.0,69,0.00,,,0.00,Wunderground v.1.15,2013-01-17 07:51:00,
2013-01-17 02:54:00,34.4,25.3,29.95,NW,305,2.0,-999.0,69,0.00,,,0.00,Wunderground v.1.15,2013-01-17 07:54:00,
2013-01-17 02:56:00,34.4,25.3,29.95,NW,305,6.0,-999.0,69,0.00,,,0.00,Wunderground v.1.15,2013-01-17 07:56:00,
2013-01-17 02:59:00,34.4,25.3,29.95,WNW,295,6.0,-999.0,69,0.00,,,0.00,Wunderground v.1.15,2013-01-17 07:59:00,
2013-01-17 03:00:00,34.4,25.3,29.95,NNW,330,5.0,-999.0,69,0.00,,,0.00,Wunderground v.1.15,2013-01-17 08:00:00,
2013-01-17 03:01:00,34.4,25.3,29.96,NW,306,2.0,-999.0,69,0.00,,,0.00,Wunderground v.1.15,2013-01-17 08:01:00,
2013-01-17 03:02:00,34.4,25.3,29.96,NW,306,2.0,-999.0,69,0.00,,,0.00,Wunderground v.1.15,2013-01-17 08:02:00,
2013-01-17 03:05:00,34.4,25.3,29.96,West,260,0.0,-999.0,69,0.00,,,0.00,Wunderground v.1.15,2013-01-17 08:05:00,
2013-01-17 03:06:00,34.4,25.3,29.96,West,260,0.0,-999.0,69,0.00,,,0.00,Wunderground v.1.15,2013-01-17 08:06:00,
2013-01-17 03:07:00,34.4,25.3,29.96,NW,320,10.0,-999.0,69,0.00,,,0.00,Wunderground v.1.15,2013-01-17 08:07:00,
2013-01-17 03:10:00,34.3,25.2,29.96,WNW,296,0.0,-999.0,69,0.00,,,0.00,Wunderground v.1.15,2013-01-17 08:10:00,
2013-01-17 03:11:00,34.3,25.2,29.96,NW,313,2.0,-999.0,69,0.00,,,0.00,Wunderground v.1.15,2013-01-17 08:11:00,
2013-01-17 03:12:00,34.3,25.2,29.96,NW,304,2.0,-999.0,69,0.00,,,0.00,Wunderground v.1.15,2013-01-17 08:12:00,
2013-01-17 03:13:00,34.3,25.2,29.96,NW,313,6.0,-999.0,69,0.00,,,0.00,Wunderground v.1.15,2013-01-17 08:13:00,
2013-01-17 03:15:00,34.3,25.2,29.97,NW,323,3.0,-999.0,69,0.00,,,0.00,Wunderground v.1.15,2013-01-17 08:15:00,
2013-01-17 03:17:00,34.3,25.2,29.97,NW,304,3.0,-999.0,69,0.00,,,0.00,Wunderground v.1.15,2013-01-17 08:17:00,
2013-01-17 03:18:00,34.3,25.2,29.97,NW,306,2.0,-999.0,69,0.00,,,0.00,Wunderground v.1.15,2013-01-17 08:18:00,
2013-01-17 03:19:00,34.3,25.2,29.97,NW,304,1.0,-999.0,69,0.00,,,0.00,Wunderground v.1.15,2013-01-17 08:19:00,
2013-01-17 03:20:00,34.3,25.2,29.97,NW,312,3.0,-999.0,69,0.00,,,0.00,Wunderground v.1.15,2013-01-17 08:20:00,
2013-01-17 03:23:00,34.3,25.5,29.97,NW,312,2.0,-999.0,70,0.00,,,0.00,Wunderground v.1.15,2013-01-17 08:23:00,
2013-01-17 03:24:00,34.1,25.0,29.97,North,0,1.0,-999.0,69,0.00,,,0.00,Wunderground v.1.15,2013-01-17 08:24:00,
2013-01-17 03:27:00,34.1,25.0,29.97,WNW,291,2.0,-999.0,69,0.00,,,0.00,Wunderground v.1.15,2013-01-17 08:27:00,
2013-01-17 03:28:00,34.1,25.0,29.97,WNW,296,0.0,-999.0,69,0.00,,,0.00,Wunderground v.1.15,2013-01-17 08:28:00,
2013-01-17 03:30:00,34.1,25.0,29.97,NW,311,2.0,-999.0,69,0.00,,,0.00,Wunderground v.1.15,2013-01-17 08:30:00,
2013-01-17 03:32:00,34.1,25.0,29.97,NW,305,0.0,-999.0,69,0.00,,,0.00,Wunderground v.1.15,2013-01-17 08:32:00,
2013-01-17 03:33:00,34.1,25.0,29.97,NW,313,2.0,-999.0,69,0.00,,,0.00,Wunderground v.1.15,2013-01-17 08:33:00,
2013-01-17 03:34:00,34.1,25.0,29.97,NW,313,2.0,-999.0,69,0.00,,,0.00,Wunderground v.1.15,2013-01-17 08:34:00,
2013-01-17 03:36:00,34.1,25.3,29.97,NW,315,0.0,-999.0,70,0.00,,,0.00,Wunderground v.1.15,2013-01-17 08:36:00,
2013-01-17 03:37:00,34.1,25.3,29.97,NW,308,0.0,-999.0,70,0.00,,,0.00,Wunderground v.1.15,2013-01-17 08:37:00,
2013-01-17 03:39:00,34.1,25.3,29.97,WNW,298,0.0,-999.0,70,0.00,,,0.00,Wunderground v.1.15,2013-01-17 08:39:00,
2013-01-17 03:42:00,34.0,25.2,29.97,NNW,342,0.0,-999.0,70,0.00,,,0.00,Wunderground v.1.15,2013-01-17 08:42:00,
2013-01-17 03:44:00,34.0,25.2,29.97,SW,236,0.0,-999.0,70,0.00,,,0.00,Wunderground v.1.15,2013-01-17 08:44:00,
2013-01-17 03:46:00,34.0,25.2,29.97,WNW,292,0.0,-999.0,70,0.00,,,0.00,Wunderground v.1.15,2013-01-17 08:46:00,
2013-01-17 03:47:00,34.0,25.2,29.97,WNW,298,0.0,-999.0,70,0.00,,,0.00,Wunderground v.1.15,2013-01-17 08:47:00,
2013-01-17 03:49:00,34.0,25.2,29.97,WNW,298,1.0,-999.0,70,0.00,,,0.00,Wunderground v.1.15,2013-01-17 08:49:00,
2013-01-17 03:51:00,34.0,25.2,29.97,WNW,298,0.0,-999.0,70,0.00,,,0.00,Wunderground v.1.15,2013-01-17 08:51:00,
2013-01-17 03:53:00,33.8,25.0,29.97,NW,306,0.0,-999.0,70,0.00,,,0.00,Wunderground v.1.15,2013-01-17 08:53:00,
2013-01-17 03:54:00,33.8,25.0,29.97,NW,306,0.0,-999.0,70,0.00,,,0.00,Wunderground v.1.15,2013-01-17 08:54:00,
2013-01-17 03:56:00,33.8,25.0,29.97,NW,306,0.0,-999.0,70,0.00,,,0.00,Wunderground v.1.15,2013-01-17 08:56:00,
2013-01-17 03:58:00,33.8,25.0,29.97,NW,309,0.0,-999.0,70,0.00,,,0.00,Wunderground v.1.15,2013-01-17 08:58:00,
2013-01-17 04:00:00,33.8,25.0,29.97,NW,308,2.0,-999.0,70,0.00,,,0.00,Wunderground v.1.15,2013-01-17 09:00:00,
2013-01-17 04:02:00,33.7,25.3,29.97,NW,308,1.0,-999.0,71,0.00,,,0.00,Wunderground v.1.15,2013-01-17 09:02:00,
2013-01-17 04:03:00,33.7,25.3,29.97,NW,308,0.0,-999.0,71,0.00,,,0.00,Wunderground v.1.15,2013-01-17 09:03:00,
2013-01-17 04:06:00,33.7,25.3,29.97,WSW,257,0.0,-999.0,71,0.00,,,0.00,Wunderground v.1.15,2013-01-17 09:06:00,
2013-01-17 04:07:00,33.7,25.3,29.97,WSW,257,0.0,-999.0,71,0.00,,,0.00,Wunderground v.1.15,2013-01-17 09:07:00,
2013-01-17 04:08:00,33.7,25.3,29.97,WSW,257,0.0,-999.0,71,0.00,,,0.00,Wunderground v.1.15,2013-01-17 09:08:00,
2013-01-17 04:09:00,33.5,25.1,29.97,WSW,257,0.0,-999.0,71,0.00,,,0.00,Wunderground v.1.15,2013-01-17 09:09:00,
2013-01-17 04:11:00,33.5,25.1,29.97,WSW,257,1.0,-999.0,71,0.00,,,0.00,Wunderground v.1.15,2013-01-17 09:11:00,
2013-01-17 04:12:00,33.5,25.1,29.97,WSW,257,0.0,-999.0,71,0.00,,,0.00,Wunderground v.1.15,2013-01-17 09:12:00,
2013-01-17 04:14:00,33.5,25.1,29.97,WSW,257,0.0,-999.0,71,0.00,,,0.00,Wunderground v.1.15,2013-01-17 09:14:00,
2013-01-17 04:17:00,33.4,25.0,29.98,WSW,257,0.0,-999.0,71,0.00,,,0.00,Wunderground v.1.15,2013-01-17 09:17:00,
2013-01-17 04:19:00,33.4,25.0,29.98,WSW,257,0.0,-999.0,71,0.00,,,0.00,Wunderground v.1.15,2013-01-17 09:19:00,
2013-01-17 04:22:00,33.4,25.0,29.98,WSW,257,0.0,-999.0,71,0.00,,,0.00,Wunderground v.1.15,2013-01-17 09:22:00,
2013-01-17 04:23:00,33.4,25.0,29.98,WSW,257,0.0,-999.0,71,0.00,,,0.00,Wunderground v.1.15,2013-01-17 09:23:00,
2013-01-17 04:24:00,33.2,25.1,29.98,WSW,257,0.0,-999.0,72,0.00,,,0.00,Wunderground v.1.15,2013-01-17 09:24:00,
2013-01-17 04:25:00,33.2,25.1,29.98,WSW,257,0.0,-999.0,72,0.00,,,0.00,Wunderground v.1.15,2013-01-17 09:25:00,
2013-01-17 04:27:00,33.2,25.1,29.98,WSW,257,0.0,-999.0,72,0.00,,,0.00,Wunderground v.1.15,2013-01-17 09:27:00,
2013-01-17 04:28:00,33.2,25.1,29.98,WSW,257,0.0,-999.0,72,0.00,,,0.00,Wunderground v.1.15,2013-01-17 09:28:00,
2013-01-17 04:29:00,33.2,25.1,29.98,WSW,257,0.0,-999.0,72,0.00,,,0.00,Wunderground v.1.15,2013-01-17 09:29:00,
2013-01-17 04:30:00,33.2,25.1,29.99,WSW,257,0.0,-999.0,72,0.00,,,0.00,Wunderground v.1.15,2013-01-17 09:30:00,
2013-01-17 04:32:00,33.1,25.1,29.99,WSW,257,0.0,-999.0,72,0.00,,,0.00,Wunderground v.1.15,2013-01-17 09:32:00,
2013-01-17 04:33:00,33.1,25.1,29.99,WSW,257,0.0,-999.0,72,0.00,,,0.00,Wunderground v.1.15,2013-01-17 09:33:00,
2013-01-17 04:34:00,33.1,25.1,29.99,WSW,257,0.0,-999.0,72,0.00,,,0.00,Wunderground v.1.15,2013-01-17 09:34:00,
2013-01-17 04:36:00,33.1,25.1,29.99,WSW,257,0.0,-999.0,72,0.00,,,0.00,Wunderground v.1.15,2013-01-17 09:36:00,
2013-01-17 04:38:00,33.1,25.1,29.99,WSW,257,0.0,-999.0,72,0.00,,,0.00,Wunderground v.1.15,2013-01-17 09:38:00,
2013-01-17 04:39:00,33.1,25.1,29.99,WSW,257,0.0,-999.0,72,0.00,,,0.00,Wunderground v.1.15,2013-01-17 09:39:00,
2013-01-17 04:41:00,33.1,25.1,29.99,WSW,257,0.0,-999.0,72,0.00,,,0.00,Wunderground v.1.15,2013-01-17 09:41:00,
2013-01-17 04:43:00,32.9,24.9,29.99,WSW,257,0.0,-999.0,72,0.00,,,0.00,Wunderground v.1.15,2013-01-17 09:43:00,
2013-01-17 04:45:00,32.9,24.9,29.99,WSW,257,0.0,-999.0,72,0.00,,,0.00,Wunderground v.1.15,2013-01-17 09:45:00,
2013-01-17 04:46:00,32.9,24.9,29.99,WSW,257,0.0,-999.0,72,0.00,,,0.00,Wunderground v.1.15,2013-01-17 09:46:00,
2013-01-17 04:48:00,32.9,24.9,29.99,WSW,257,0.0,-999.0,72,0.00,,,0.00,Wunderground v.1.15,2013-01-17 09:48:00,
2013-01-17 04:49:00,32.9,24.9,29.99,WSW,257,0.0,-999.0,72,0.00,,,0.00,Wunderground v.1.15,2013-01-17 09:49:00,
2013-01-17 04:50:00,32.9,24.9,29.99,WSW,257,0.0,-999.0,72,0.00,,,0.00,Wunderground v.1.15,2013-01-17 09:50:00,
2013-01-17 04:51:00,32.8,24.8,29.99,WSW,257,0.0,-999.0,72,0.00,,,0.00,Wunderground v.1.15,2013-01-17 09:51:00,
2013-01-17 04:53:00,32.8,25.1,29.99,WSW,257,0.0,-999.0,73,0.00,,,0.00,Wunderground v.1.15,2013-01-17 09:53:00,
2013-01-17 04:54:00,32.8,25.1,29.99,WSW,257,0.0,-999.0,73,0.00,,,0.00,Wunderground v.1.15,2013-01-17 09:54:00,
2013-01-17 04:55:00,32.8,25.1,29.99,WSW,257,0.0,-999.0,73,0.00,,,0.00,Wunderground v.1.15,2013-01-17 09:55:00,
2013-01-17 04:57:00,32.8,25.1,29.99,WSW,257,0.0,-999.0,73,0.00,,,0.00,Wunderground v.1.15,2013-01-17 09:57:00,
2013-01-17 04:59:00,32.8,25.1,29.99,WSW,257,0.0,-999.0,73,0.00,,,0.00,Wunderground v.1.15,2013-01-17 09:59:00,
2013-01-17 05:00:00,32.8,25.1,29.99,WSW,257,0.0,-999.0,73,0.00,,,0.00,Wunderground v.1.15,2013-01-17 10:00:00,
2013-01-17 05:02:00,32.7,25.0,30.00,WSW,257,0.0,-999.0,73,0.00,,,0.00,Wunderground v.1.15,2013-01-17 10:02:00,
2013-01-17 05:04:00,32.7,25.0,30.00,WSW,257,0.0,-999.0,73,0.00,,,0.00,Wunderground v.1.15,2013-01-17 10:04:00,
2013-01-17 05:05:00,32.7,25.0,30.00,WSW,257,0.0,-999.0,73,0.00,,,0.00,Wunderground v.1.15,2013-01-17 10:05:00,
2013-01-17 05:06:00,32.7,25.0,30.00,WSW,257,0.0,-999.0,73,0.00,,,0.00,Wunderground v.1.15,2013-01-17 10:06:00,
2013-01-17 05:07:00,32.7,25.0,30.00,WSW,257,0.0,-999.0,73,0.00,,,0.00,Wunderground v.1.15,2013-01-17 10:07:00,
2013-01-17 05:09:00,32.5,24.8,30.00,WSW,257,0.0,-999.0,73,0.00,,,0.00,Wunderground v.1.15,2013-01-17 10:09:00,
2013-01-17 05:11:00,32.5,24.8,30.00,WSW,257,0.0,-999.0,73,0.00,,,0.00,Wunderground v.1.15,2013-01-17 10:11:00,
2013-01-17 05:13:00,32.5,24.8,30.00,WSW,257,0.0,-999.0,73,0.00,,,0.00,Wunderground v.1.15,2013-01-17 10:13:00,
2013-01-17 05:15:00,32.5,24.8,30.00,WSW,257,0.0,-999.0,73,0.00,,,0.00,Wunderground v.1.15,2013-01-17 10:15:00,
2013-01-17 05:17:00,32.5,24.8,30.00,WSW,257,0.0,-999.0,73,0.00,,,0.00,Wunderground v.1.15,2013-01-17 10:17:00,
2013-01-17 05:18:00,32.5,24.8,30.00,WSW,257,0.0,-999.0,73,0.00,,,0.00,Wunderground v.1.15,2013-01-17 10:18:00,
2013-01-17 05:21:00,32.4,24.7,30.00,WSW,257,0.0,-999.0,73,0.00,,,0.00,Wunderground v.1.15,2013-01-17 10:21:00,
2013-01-17 05:22:00,32.4,25.0,30.00,WSW,257,0.0,-999.0,74,0.00,,,0.00,Wunderground v.1.15,2013-01-17 10:22:00,
2013-01-17 05:24:00,32.4,25.0,30.00,WSW,257,0.0,-999.0,74,0.00,,,0.00,Wunderground v.1.15,2013-01-17 10:24:00,
2013-01-17 05:26:00,32.4,25.0,30.00,WSW,257,0.0,-999.0,74,0.00,,,0.00,Wunderground v.1.15,2013-01-17 10:26:00,
2013-01-17 05:27:00,32.4,25.0,30.00,WSW,257,0.0,-999.0,74,0.00,,,0.00,Wunderground v.1.15,2013-01-17 10:27:00,
2013-01-17 05:28:00,32.4,25.0,30.00,WSW,257,0.0,-999.0,74,0.00,,,0.00,Wunderground v.1.15,2013-01-17 10:28:00,
2013-01-17 05:29:00,32.4,25.0,30.00,WSW,257,0.0,-999.0,74,0.00,,,0.00,Wunderground v.1.15,2013-01-17 10:29:00,
2013-01-17 05:31:00,32.4,25.0,30.02,WSW,257,0.0,-999.0,74,0.00,,,0.00,Wunderground v.1.15,2013-01-17 10:31:00,
2013-01-17 05:33:00,32.4,25.0,30.02,WSW,257,0.0,-999.0,74,0.00,,,0.00,Wunderground v.1.15,2013-01-17 10:33:00,
2013-01-17 05:34:00,32.4,25.0,30.02,West,272,0.0,-999.0,74,0.00,,,0.00,Wunderground v.1.15,2013-01-17 10:34:00,
2013-01-17 05:36:00,32.4,25.0,30.02,West,272,0.0,-999.0,74,0.00,,,0.00,Wunderground v.1.15,2013-01-17 10:36:00,
2013-01-17 05:38:00,32.4,25.0,30.02,West,272,0.0,-999.0,74,0.00,,,0.00,Wunderground v.1.15,2013-01-17 10:38:00,
2013-01-17 05:39:00,32.4,25.0,30.02,West,272,0.0,-999.0,74,0.00,,,0.00,Wunderground v.1.15,2013-01-17 10:39:00,
2013-01-17 05:42:00,32.4,25.0,30.02,West,272,0.0,-999.0,74,0.00,,,0.00,Wunderground v.1.15,2013-01-17 10:42:00,
2013-01-17 05:43:00,32.4,25.0,30.02,West,272,0.0,-999.0,74,0.00,,,0.00,Wunderground v.1.15,2013-01-17 10:43:00,
2013-01-17 05:44:00,32.4,25.0,30.02,West,272,1.0,-999.0,74,0.00,,,0.00,Wunderground v.1.15,2013-01-17 10:44:00,
2013-01-17 05:47:00,32.4,25.0,30.03,WNW,296,0.0,-999.0,74,0.00,,,0.00,Wunderground v.1.15,2013-01-17 10:47:00,
2013-01-17 05:49:00,32.4,25.0,30.03,WNW,296,0.0,-999.0,74,0.00,,,0.00,Wunderground v.1.15,2013-01-17 10:49:00,
2013-01-17 05:50:00,32.4,25.0,30.03,WNW,296,0.0,-999.0,74,0.00,,,0.00,Wunderground v.1.15,2013-01-17 10:50:00,
2013-01-17 05:53:00,32.4,25.0,30.03,WNW,296,0.0,-999.0,74,0.00,,,0.00,Wunderground v.1.15,2013-01-17 10:53:00,
2013-01-17 05:54:00,32.4,25.0,30.03,WNW,296,0.0,-999.0,74,0.00,,,0.00,Wunderground v.1.15,2013-01-17 10:54:00,
2013-01-17 05:55:00,32.4,25.0,30.03,WNW,296,1.0,-999.0,74,0.00,,,0.00,Wunderground v.1.15,2013-01-17 10:55:00,
2013-01-17 05:57:00,32.4,25.0,30.03,WNW,296,0.0,-999.0,74,0.00,,,0.00,Wunderground v.1.15,2013-01-17 10:57:00,
2013-01-17 05:58:00,32.4,25.0,30.03,WNW,296,0.0,-999.0,74,0.00,,,0.00,Wunderground v.1.15,2013-01-17 10:58:00,
2013-01-17 05:59:00,32.2,24.8,30.03,WNW,296,0.0,-999.0,74,0.00,,,0.00,Wunderground v.1.15,2013-01-17 10:59:00,
2013-01-17 06:00:00,32.2,24.8,30.03,WNW,296,0.0,-999.0,74,0.00,,,0.00,Wunderground v.1.15,2013-01-17 11:00:00,
2013-01-17 06:02:00,32.2,25.2,30.04,WNW,296,0.0,-999.0,75,0.00,,,0.00,Wunderground v.1.15,2013-01-17 11:02:00,
2013-01-17 06:04:00,32.2,25.2,30.04,WNW,296,0.0,-999.0,75,0.00,,,0.00,Wunderground v.1.15,2013-01-17 11:04:00,
2013-01-17 06:05:00,32.2,25.2,30.04,WNW,296,0.0,-999.0,75,0.00,,,0.00,Wunderground v.1.15,2013-01-17 11:05:00,
2013-01-17 06:08:00,32.1,25.1,30.04,WNW,296,0.0,-999.0,75,0.00,,,0.00,Wunderground v.1.15,2013-01-17 11:08:00,
2013-01-17 06:09:00,32.1,25.1,30.04,WNW,296,0.0,-999.0,75,0.00,,,0.00,Wunderground v.1.15,2013-01-17 11:09:00,
2013-01-17 06:10:00,32.1,25.1,30.04,WNW,296,0.0,-999.0,75,0.00,,,0.00,Wunderground v.1.15,2013-01-17 11:10:00,
2013-01-17 06:11:00,32.1,25.1,30.04,WNW,296,0.0,-999.0,75,0.00,,,0.00,Wunderground v.1.15,2013-01-17 11:11:00,
2013-01-17 06:13:00,32.1,25.1,30.04,WNW,296,0.0,-999.0,75,0.00,,,0.00,Wunderground v.1.15,2013-01-17 11:13:00,
2013-01-17 06:14:00,32.1,25.1,30.04,WNW,296,0.0,-999.0,75,0.00,,,0.00,Wunderground v.1.15,2013-01-17 11:14:00,
2013-01-17 06:16:00,31.9,24.9,30.04,WNW,296,0.0,-999.0,75,0.00,,,0.00,Wunderground v.1.15,2013-01-17 11:16:00,
2013-01-17 06:19:00,31.9,25.2,30.04,WNW,296,0.0,-999.0,76,0.00,,,0.00,Wunderground v.1.15,2013-01-17 11:19:00,
2013-01-17 06:20:00,31.9,25.2,30.04,WNW,296,0.0,-999.0,76,0.00,,,0.00,Wunderground v.1.15,2013-01-17 11:20:00,
2013-01-17 06:21:00,31.9,25.2,30.04,WNW,296,1.0,-999.0,76,0.00,,,0.00,Wunderground v.1.15,2013-01-17 11:21:00,
2013-01-17 06:24:00,31.8,25.1,30.04,WNW,296,0.0,-999.0,76,0.00,,,0.00,Wunderground v.1.15,2013-01-17 11:24:00,
2013-01-17 06:25:00,31.8,25.1,30.04,WNW,296,0.0,-999.0,76,0.00,,,0.00,Wunderground v.1.15,2013-01-17 11:25:00,
2013-01-17 06:26:00,31.8,25.1,30.04,WNW,296,0.0,-999.0,76,0.00,,,0.00,Wunderground v.1.15,2013-01-17 11:26:00,
2013-01-17 06:29:00,31.8,25.4,30.04,WNW,296,0.0,-999.0,77,0.00,,,0.00,Wunderground v.1.15,2013-01-17 11:29:00,
2013-01-17 06:30:00,31.6,25.2,30.04,WNW,296,0.0,-999.0,77,0.00,,,0.00,Wunderground v.1.15,2013-01-17 11:30:00,
2013-01-17 06:33:00,31.6,25.2,30.05,WNW,296,0.0,-999.0,77,0.00,,,0.00,Wunderground v.1.15,2013-01-17 11:33:00,
2013-01-17 06:34:00,31.6,25.2,30.05,WNW,296,0.0,-999.0,77,0.00,,,0.00,Wunderground v.1.15,2013-01-17 11:34:00,
2013-01-17 06:35:00,31.5,25.1,30.05,WNW,296,0.0,-999.0,77,0.00,,,0.00,Wunderground v.1.15,2013-01-17 11:35:00,
2013-01-17 06:38:00,31.5,25.1,30.05,WNW,296,0.0,-999.0,77,0.00,,,0.00,Wunderground v.1.15,2013-01-17 11:38:00,
2013-01-17 06:39:00,31.5,25.1,30.05,WNW,296,0.0,-999.0,77,0.00,,,0.00,Wunderground v.1.15,2013-01-17 11:39:00,
2013-01-17 06:40:00,31.5,25.1,30.05,WNW,296,0.0,-999.0,77,0.00,,,0.00,Wunderground v.1.15,2013-01-17 11:40:00,
2013-01-17 06:42:00,31.5,25.4,30.05,WNW,296,0.0,-999.0,78,0.00,,,0.00,Wunderground v.1.15,2013-01-17 11:42:00,
2013-01-17 06:43:00,31.5,25.4,30.05,WNW,296,0.0,-999.0,78,0.00,,,0.00,Wunderground v.1.15,2013-01-17 11:43:00,
2013-01-17 06:44:00,31.5,25.4,30.05,WNW,296,0.0,-999.0,78,0.00,,,0.00,Wunderground v.1.15,2013-01-17 11:44:00,
2013-01-17 06:45:00,31.5,25.4,30.05,WNW,296,0.0,-999.0,78,0.00,,,0.00,Wunderground v.1.15,2013-01-17 11:45:00,
2013-01-17 06:47:00,31.5,25.4,30.05,WNW,296,0.0,-999.0,78,0.00,,,0.00,Wunderground v.1.15,2013-01-17 11:47:00,
2013-01-17 06:49:00,31.5,25.4,30.05,NW,308,0.0,-999.0,78,0.00,,,0.00,Wunderground v.1.15,2013-01-17 11:49:00,
2013-01-17 06:50:00,31.5,25.4,30.05,NW,306,1.0,-999.0,78,0.00,,,0.00,Wunderground v.1.15,2013-01-17 11:50:00,
2013-01-17 06:51:00,31.5,25.4,30.05,NW,306,0.0,-999.0,78,0.00,,,0.00,Wunderground v.1.15,2013-01-17 11:51:00,
2013-01-17 06:52:00,31.5,25.4,30.05,NW,306,0.0,-999.0,78,0.00,,,0.00,Wunderground v.1.15,2013-01-17 11:52:00,
2013-01-17 06:54:00,31.5,25.4,30.05,NW,306,0.0,-999.0,78,0.00,,,0.00,Wunderground v.1.15,2013-01-17 11:54:00,
2013-01-17 06:55:00,31.5,25.4,30.05,NW,306,2.0,-999.0,78,0.00,,,0.00,Wunderground v.1.15,2013-01-17 11:55:00,
2013-01-17 06:56:00,31.5,25.4,30.05,NW,306,1.0,-999.0,78,0.00,,,0.00,Wunderground v.1.15,2013-01-17 11:56:00,
2013-01-17 06:57:00,31.5,25.4,30.05,NW,306,1.0,-999.0,78,0.00,,,0.00,Wunderground v.1.15,2013-01-17 11:57:00,
2013-01-17 07:00:00,31.5,25.4,30.05,NW,323,0.0,-999.0,78,0.00,,,0.00,Wunderground v.1.15,2013-01-17 12:00:00,
2013-01-17 07:01:00,31.5,25.4,30.05,NW,313,0.0,-999.0,78,0.00,,,0.00,Wunderground v.1.15,2013-01-17 12:01:00,
2013-01-17 07:02:00,31.5,25.4,30.05,NW,313,0.0,-999.0,78,0.00,,,0.00,Wunderground v.1.15,2013-01-17 12:02:00,
2013-01-17 07:06:00,31.5,25.4,30.05,NW,306,2.0,-999.0,78,0.00,,,0.00,Wunderground v.1.15,2013-01-17 12:06:00,
2013-01-17 07:07:00,31.5,25.4,30.05,NW,306,2.0,-999.0,78,0.00,,,0.00,Wunderground v.1.15,2013-01-17 12:07:00,
2013-01-17 07:08:00,31.5,25.4,30.05,NW,306,0.0,-999.0,78,0.00,,,0.00,Wunderground v.1.15,2013-01-17 12:08:00,
2013-01-17 07:11:00,31.6,25.5,30.05,North,0,1.0,-999.0,78,0.00,,,0.00,Wunderground v.1.15,2013-01-17 12:11:00,
2013-01-17 07:12:00,31.6,25.5,30.05,North,349,0.0,-999.0,78,0.00,,,0.00,Wunderground v.1.15,2013-01-17 12:12:00,
2013-01-17 07:13:00,31.6,25.5,30.05,North,0,5.0,-999.0,78,0.00,,,0.00,Wunderground v.1.15,2013-01-17 12:13:00,
2013-01-17 07:16:00,31.6,25.5,30.06,NNE,27,3.0,-999.0,78,0.00,,,0.00,Wunderground v.1.15,2013-01-17 12:16:00,
2013-01-17 07:17:00,31.6,25.5,30.06,NNE,27,3.0,-999.0,78,0.00,,,0.00,Wunderground v.1.15,2013-01-17 12:17:00,
2013-01-17 07:18:00,31.5,25.4,30.06,NW,319,3.0,-999.0,78,0.00,,,0.00,Wunderground v.1.15,2013-01-17 12:18:00,
2013-01-17 07:21:00,31.3,25.2,30.06,NNW,336,0.0,-999.0,78,0.00,,,0.00,Wunderground v.1.15,2013-01-17 12:21:00,
2013-01-17 07:22:00,31.2,24.5,30.06,NNW,337,0.0,-999.0,76,0.00,,,0.00,Wunderground v.1.15,2013-01-17 12:22:00,
2013-01-17 07:24:00,31.0,24.0,30.06,North,0,0.0,-999.0,75,0.00,,,0.00,Wunderground v.1.15,2013-01-17 12:24:00,
2013-01-17 07:26:00,31.0,24.0,30.06,North,349,1.0,-999.0,75,0.00,,,0.00,Wunderground v.1.15,2013-01-17 12:26:00,
2013-01-17 07:27:00,31.0,24.0,30.06,North,349,1.0,-999.0,75,0.00,,,0.00,Wunderground v.1.15,2013-01-17 12:27:00,
2013-01-17 07:28:00,30.9,23.9,30.06,NW,326,0.0,-999.0,75,0.00,,,0.00,Wunderground v.1.15,2013-01-17 12:28:00,
2013-01-17 07:30:00,30.7,23.4,30.06,NW,325,0.0,-999.0,74,0.00,,,0.00,Wunderground v.1.15,2013-01-17 12:30:00,
2013-01-17 07:32:00,30.7,23.4,30.06,NW,325,1.0,-999.0,74,0.00,,,0.00,Wunderground v.1.15,2013-01-17 12:32:00,
2013-01-17 07:33:00,30.7,23.4,30.06,NW,325,0.0,-999.0,74,0.00,,,0.00,Wunderground v.1.15,2013-01-17 12:33:00,
2013-01-17 07:35:00,30.6,23.3,30.06,NW,325,0.0,-999.0,74,0.00,,,0.00,Wunderground v.1.15,2013-01-17 12:35:00,
2013-01-17 07:37:00,30.4,22.8,30.06,NW,325,0.0,-999.0,73,0.00,,,0.00,Wunderground v.1.15,2013-01-17 12:37:00,
2013-01-17 07:38:00,30.4,22.8,30.06,NW,325,0.0,-999.0,73,0.00,,,0.00,Wunderground v.1.15,2013-01-17 12:38:00,
2013-01-17 07:40:00,30.3,22.7,30.06,NW,325,0.0,-999.0,73,0.00,,,0.00,Wunderground v.1.15,2013-01-17 12:40:00,
2013-01-17 07:42:00,30.3,22.7,30.06,NW,325,0.0,-999.0,73,0.00,,,0.00,Wunderground v.1.15,2013-01-17 12:42:00,
2013-01-17 07:43:00,30.3,22.7,30.06,NW,325,0.0,-999.0,73,0.00,,,0.00,Wunderground v.1.15,2013-01-17 12:43:00,
2013-01-17 07:46:00,30.1,22.2,30.07,NW,325,2.0,-999.0,72,0.00,,,0.00,Wunderground v.1.15,2013-01-17 12:46:00,
2013-01-17 07:48:00,30.1,22.2,30.07,North,0,2.0,-999.0,72,0.00,,,0.00,Wunderground v.1.15,2013-01-17 12:48:00,
2013-01-17 07:51:00,30.0,22.1,30.07,North,0,0.0,-999.0,72,0.00,,,0.00,Wunderground v.1.15,2013-01-17 12:51:00,
2013-01-17 07:53:00,30.0,22.1,30.07,NNW,333,0.0,-999.0,72,0.00,,,0.00,Wunderground v.1.15,2013-01-17 12:53:00,
2013-01-17 07:57:00,30.0,21.7,30.07,North,357,0.0,-999.0,71,0.00,,,0.00,Wunderground v.1.15,2013-01-17 12:57:00,
2013-01-17 07:58:00,29.8,21.5,30.07,North,357,1.0,-999.0,71,0.00,,,0.00,Wunderground v.1.15,2013-01-17 12:58:00,
2013-01-17 07:59:00,29.8,21.5,30.07,North,357,1.0,-999.0,71,0.00,,,0.00,Wunderground v.1.15,2013-01-17 12:59:00,
2013-01-17 08:00:00,29.8,21.5,30.07,North,0,0.0,-999.0,71,0.00,,,0.00,Wunderground v.1.15,2013-01-17 13:00:00,
2013-01-17 08:02:00,29.8,21.5,30.07,North,0,0.0,-999.0,71,0.00,,,0.00,Wunderground v.1.15,2013-01-17 13:02:00,
2013-01-17 08:03:00,29.7,21.4,30.07,NW,325,0.0,-999.0,71,0.00,,,0.00,Wunderground v.1.15,2013-01-17 13:03:00,
2013-01-17 08:04:00,29.7,21.4,30.07,NNW,340,0.0,-999.0,71,0.00,,,0.00,Wunderground v.1.15,2013-01-17 13:04:00,
2013-01-17 08:05:00,29.7,21.4,30.07,NNW,340,0.0,-999.0,71,0.00,,,0.00,Wunderground v.1.15,2013-01-17 13:05:00,
2013-01-17 08:08:00,29.7,21.4,30.07,NNW,340,0.0,-999.0,71,0.00,,,0.00,Wunderground v.1.15,2013-01-17 13:08:00,
2013-01-17 08:09:00,29.5,21.3,30.07,NNW,340,0.0,-999.0,71,0.00,,,0.00,Wunderground v.1.15,2013-01-17 13:09:00,
2013-01-17 08:11:00,29.5,21.3,30.07,NNW,340,0.0,-999.0,71,0.00,,,0.00,Wunderground v.1.15,2013-01-17 13:11:00,
2013-01-17 08:13:00,29.5,21.3,30.07,NNW,340,0.0,-999.0,71,0.00,,,0.00,Wunderground v.1.15,2013-01-17 13:13:00,
2013-01-17 08:14:00,29.5,21.3,30.07,NNW,340,0.0,-999.0,71,0.00,,,0.00,Wunderground v.1.15,2013-01-17 13:14:00,
2013-01-17 08:17:00,29.4,21.2,30.09,NNW,340,0.0,-999.0,71,0.00,,,0.00,Wunderground v.1.15,2013-01-17 13:17:00,
2013-01-17 08:18:00,29.4,21.2,30.09,NNW,340,0.0,-999.0,71,0.00,,,0.00,Wunderground v.1.15,2013-01-17 13:18:00,
2013-01-17 08:19:00,29.4,21.2,30.09,NNW,340,0.0,-999.0,71,0.00,,,0.00,Wunderground v.1.15,2013-01-17 13:19:00,
2013-01-17 08:22:00,29.4,21.2,30.09,NNW,340,0.0,-999.0,71,0.00,,,0.00,Wunderground v.1.15,2013-01-17 13:22:00,
2013-01-17 08:24:00,29.3,21.1,30.09,NNW,340,0.0,-999.0,71,0.00,,,0.00,Wunderground v.1.15,2013-01-17 13:24:00,
2013-01-17 08:25:00,29.3,21.1,30.09,NNW,340,0.0,-999.0,71,0.00,,,0.00,Wunderground v.1.15,2013-01-17 13:25:00,
2013-01-17 08:27:00,29.3,21.1,30.09,NNW,340,0.0,-999.0,71,0.00,,,0.00,Wunderground v.1.15,2013-01-17 13:27:00,
2013-01-17 08:29:00,29.3,21.1,30.09,NNW,340,0.0,-999.0,71,0.00,,,0.00,Wunderground v.1.15,2013-01-17 13:29:00,
2013-01-17 08:30:00,29.3,21.1,30.09,NNW,340,0.0,-999.0,71,0.00,,,0.00,Wunderground v.1.15,2013-01-17 13:30:00,
2013-01-17 08:33:00,29.1,20.9,30.09,NNW,340,0.0,-999.0,71,0.00,,,0.00,Wunderground v.1.15,2013-01-17 13:33:00,
2013-01-17 08:34:00,29.1,20.9,30.09,NNW,340,0.0,-999.0,71,0.00,,,0.00,Wunderground v.1.15,2013-01-17 13:34:00,
2013-01-17 08:35:00,29.1,20.9,30.09,NNW,340,0.0,-999.0,71,0.00,,,0.00,Wunderground v.1.15,2013-01-17 13:35:00,
2013-01-17 08:38:00,29.1,20.9,30.09,NNW,340,0.0,-999.0,71,0.00,,,0.00,Wunderground v.1.15,2013-01-17 13:38:00,
2013-01-17 08:40:00,29.1,20.9,30.09,NNW,340,0.0,-999.0,71,0.00,,,0.00,Wunderground v.1.15,2013-01-17 13:40:00,
2013-01-17 08:41:00,29.1,21.2,30.09,NNW,340,0.0,-999.0,72,0.00,,,0.00,Wunderground v.1.15,2013-01-17 13:41:00,
2013-01-17 08:43:00,29.0,21.1,30.09,NNW,340,1.0,-999.0,72,0.00,,,0.00,Wunderground v.1.15,2013-01-17 13:43:00,
2013-01-17 08:45:00,29.0,21.1,30.10,NNW,340,0.0,-999.0,72,0.00,,,0.00,Wunderground v.1.15,2013-01-17 13:45:00,
2013-01-17 08:46:00,29.0,21.1,30.10,NNW,340,1.0,-999.0,72,0.00,,,0.00,Wunderground v.1.15,2013-01-17 13:46:00,
2013-01-17 08:48:00,29.0,21.1,30.10,NNW,340,0.0,-999.0,72,0.00,,,0.00,Wunderground v.1.15,2013-01-17 13:48:00,
2013-01-17 08:50:00,28.8,20.9,30.10,North,354,1.0,-999.0,72,0.00,,,0.00,Wunderground v.1.15,2013-01-17 13:50:00,
2013-01-17 08:51:00,28.8,20.6,30.10,North,0,1.0,-999.0,71,0.00,,,0.00,Wunderground v.1.15,2013-01-17 13:51:00,
2013-01-17 08:53:00,28.8,20.6,30.10,NNW,332,0.0,-999.0,71,0.00,,,0.00,Wunderground v.1.15,2013-01-17 13:53:00,
2013-01-17 08:55:00,28.8,20.6,30.10,NNW,332,0.0,-999.0,71,0.00,,,0.00,Wunderground v.1.15,2013-01-17 13:55:00,
2013-01-17 08:56:00,28.7,20.5,30.10,NNW,332,0.0,-999.0,71,0.00,,,0.00,Wunderground v.1.15,2013-01-17 13:56:00,
2013-01-17 08:57:00,28.7,20.5,30.10,NNW,332,0.0,-999.0,71,0.00,,,0.00,Wunderground v.1.15,2013-01-17 13:57:00,
2013-01-17 08:58:00,28.7,20.5,30.10,NNW,332,0.0,-999.0,71,0.00,,,0.00,Wunderground v.1.15,2013-01-17 13:58:00,
2013-01-17 09:00:00,28.7,20.5,30.10,NNW,332,0.0,-999.0,71,0.00,,,0.00,Wunderground v.1.15,2013-01-17 14:00:00,
2013-01-17 09:01:00,28.7,20.5,30.10,NNW,332,0.0,-999.0,71,0.00,,,0.00,Wunderground v.1.15,2013-01-17 14:01:00,
2013-01-17 09:03:00,28.7,20.5,30.10,NNW,332,0.0,-999.0,71,0.00,,,0.00,Wunderground v.1.15,2013-01-17 14:03:00,
2013-01-17 09:05:00,28.7,20.5,30.10,NNW,332,0.0,-999.0,71,0.00,,,0.00,Wunderground v.1.15,2013-01-17 14:05:00,
2013-01-17 09:08:00,28.7,20.1,30.10,NNW,332,0.0,-999.0,70,0.00,,,0.00,Wunderground v.1.15,2013-01-17 14:08:00,
2013-01-17 09:09:00,28.7,20.5,30.10,NNW,332,0.0,-999.0,71,0.00,,,0.00,Wunderground v.1.15,2013-01-17 14:09:00,
2013-01-17 09:10:00,28.7,20.5,30.10,NNW,332,0.0,-999.0,71,0.00,,,0.00,Wunderground v.1.15,2013-01-17 14:10:00,
2013-01-17 09:13:00,28.5,20.3,30.10,NNW,332,0.0,-999.0,71,0.00,,,0.00,Wunderground v.1.15,2013-01-17 14:13:00,
2013-01-17 09:14:00,28.5,20.3,30.10,NNW,332,0.0,-999.0,71,0.00,,,0.00,Wunderground v.1.15,2013-01-17 14:14:00,
2013-01-17 09:15:00,28.5,20.0,30.10,NNW,332,0.0,-999.0,70,0.00,,,0.00,Wunderground v.1.15,2013-01-17 14:15:00,
2013-01-17 09:16:00,28.5,20.0,30.11,NNW,332,0.0,-999.0,70,0.00,,,0.00,Wunderground v.1.15,2013-01-17 14:16:00,
2013-01-17 09:18:00,28.5,20.3,30.11,NNW,332,0.0,-999.0,71,0.00,,,0.00,Wunderground v.1.15,2013-01-17 14:18:00,
2013-01-17 09:19:00,28.5,20.3,30.11,NNW,332,0.0,-999.0,71,0.00,,,0.00,Wunderground v.1.15,2013-01-17 14:19:00,
2013-01-17 09:21:00,28.5,20.3,30.11,NNW,332,0.0,-999.0,71,0.00,,,0.00,Wunderground v.1.15,2013-01-17 14:21:00,
2013-01-17 09:24:00,28.5,20.3,30.11,NNW,332,0.0,-999.0,71,0.00,,,0.00,Wunderground v.1.15,2013-01-17 14:24:00,
2013-01-17 09:25:00,28.5,20.3,30.11,NNW,332,0.0,-999.0,71,0.00,,,0.00,Wunderground v.1.15,2013-01-17 14:25:00,
2013-01-17 09:26:00,28.5,20.3,30.11,NNW,332,0.0,-999.0,71,0.00,,,0.00,Wunderground v.1.15,2013-01-17 14:26:00,
2013-01-17 09:27:00,28.7,20.5,30.11,NNW,332,0.0,-999.0,71,0.00,,,0.00,Wunderground v.1.15,2013-01-17 14:27:00,
2013-01-17 09:30:00,28.7,20.5,30.11,NNW,332,0.0,-999.0,71,0.00,,,0.00,Wunderground v.1.15,2013-01-17 14:30:00,
2013-01-17 09:32:00,28.7,20.5,30.12,NNE,17,0.0,-999.0,71,0.00,,,0.00,Wunderground v.1.15,2013-01-17 14:32:00,
2013-01-17 09:33:00,28.7,20.5,30.12,NNE,17,0.0,-999.0,71,0.00,,,0.00,Wunderground v.1.15,2013-01-17 14:33:00,
2013-01-17 09:35:00,28.8,20.6,30.12,North,6,0.0,-999.0,71,0.00,,,0.00,Wunderground v.1.15,2013-01-17 14:35:00,
2013-01-17 09:36:00,28.8,20.6,30.12,North,6,0.0,-999.0,71,0.00,,,0.00,Wunderground v.1.15,2013-01-17 14:36:00,
2013-01-17 09:37:00,28.8,20.6,30.12,North,6,0.0,-999.0,71,0.00,,,0.00,Wunderground v.1.15,2013-01-17 14:37:00,
2013-01-17 09:38:00,28.8,20.6,30.12,North,6,0.0,-999.0,71,0.00,,,0.00,Wunderground v.1.15,2013-01-17 14:38:00,
2013-01-17 09:40:00,28.8,20.6,30.12,North,6,1.0,-999.0,71,0.00,,,0.00,Wunderground v.1.15,2013-01-17 14:40:00,
2013-01-17 09:41:00,29.0,20.8,30.12,North,3,1.0,-999.0,71,0.00,,,0.00,Wunderground v.1.15,2013-01-17 14:41:00,
2013-01-17 09:42:00,29.0,20.8,30.12,North,3,0.0,-999.0,71,0.00,,,0.00,Wunderground v.1.15,2013-01-17 14:42:00,
2013-01-17 09:44:00,29.0,20.4,30.12,North,3,1.0,-999.0,70,0.00,,,0.00,Wunderground v.1.15,2013-01-17 14:44:00,
2013-01-17 09:45:00,29.1,20.5,30.12,North,3,0.0,-999.0,70,0.00,,,0.00,Wunderground v.1.15,2013-01-17 14:45:00,
2013-01-17 09:46:00,29.1,20.5,30.12,North,3,0.0,-999.0,70,0.00,,,0.00,Wunderground v.1.15,2013-01-17 14:46:00,
2013-01-17 09:48:00,29.3,20.7,30.12,North,3,0.0,-999.0,70,0.00,,,0.00,Wunderground v.1.15,2013-01-17 14:48:00,
2013-01-17 09:49:00,29.3,20.7,30.12,North,3,0.0,-999.0,70,0.00,,,0.00,Wunderground v.1.15,2013-01-17 14:49:00,
2013-01-17 09:51:00,29.4,20.5,30.12,North,3,0.0,-999.0,69,0.00,,,0.00,Wunderground v.1.15,2013-01-17 14:51:00,
2013-01-17 09:52:00,29.4,20.5,30.12,North,3,1.0,-999.0,69,0.00,,,0.00,Wunderground v.1.15,2013-01-17 14:52:00,
2013-01-17 09:54:00,29.4,20.5,30.12,North,0,2.0,-999.0,69,0.00,,,0.00,Wunderground v.1.15,2013-01-17 14:54:00,
2013-01-17 09:55:00,29.5,20.6,30.12,North,0,1.0,-999.0,69,0.00,,,0.00,Wunderground v.1.15,2013-01-17 14:55:00,
2013-01-17 09:57:00,29.5,20.6,30.12,North,0,1.0,-999.0,69,0.00,,,0.00,Wunderground v.1.15,2013-01-17 14:57:00,
2013-01-17 09:59:00,29.5,20.6,30.12,NW,322,3.0,-999.0,69,0.00,,,0.00,Wunderground v.1.15,2013-01-17 14:59:00,
2013-01-17 10:01:00,29.7,20.4,30.12,North,0,1.0,-999.0,68,0.00,,,0.00,Wunderground v.1.15,2013-01-17 15:01:00,
2013-01-17 10:02:00,29.7,20.4,30.12,NNW,343,2.0,-999.0,68,0.00,,,0.00,Wunderground v.1.15,2013-01-17 15:02:00,
2013-01-17 10:03:00,29.7,20.4,30.12,North,0,0.0,-999.0,68,0.00,,,0.00,Wunderground v.1.15,2013-01-17 15:03:00,
2013-01-17 10:04:00,29.7,20.4,30.12,North,0,1.0,-999.0,68,0.00,,,0.00,Wunderground v.1.15,2013-01-17 15:04:00,
2013-01-17 10:06:00,29.8,20.5,30.12,NNE,16,1.0,-999.0,68,0.00,,,0.00,Wunderground v.1.15,2013-01-17 15:06:00,
2013-01-17 10:07:00,29.8,20.5,30.12,NNE,16,0.0,-999.0,68,0.00,,,0.00,Wunderground v.1.15,2013-01-17 15:07:00,
2013-01-17 10:08:00,29.8,20.5,30.12,NW,308,2.0,-999.0,68,0.00,,,0.00,Wunderground v.1.15,2013-01-17 15:08:00,
2013-01-17 10:09:00,29.8,20.5,30.12,NW,305,3.0,-999.0,68,0.00,,,0.00,Wunderground v.1.15,2013-01-17 15:09:00,
2013-01-17 10:11:00,30.0,20.7,30.12,North,0,0.0,-999.0,68,0.00,,,0.00,Wunderground v.1.15,2013-01-17 15:11:00,
2013-01-17 10:12:00,30.0,20.4,30.12,NNE,16,2.0,-999.0,67,0.00,,,0.00,Wunderground v.1.15,2013-01-17 15:12:00,
2013-01-17 10:13:00,30.0,20.4,30.12,NNE,20,0.0,-999.0,67,0.00,,,0.00,Wunderground v.1.15,2013-01-17 15:13:00,
2013-01-17 10:14:00,30.1,20.5,30.12,North,0,0.0,-999.0,67,0.00,,,0.00,Wunderground v.1.15,2013-01-17 15:14:00,
2013-01-17 10:16:00,30.1,20.5,30.13,NNE,16,1.0,-999.0,67,0.00,,,0.00,Wunderground v.1.15,2013-01-17 15:16:00,
2013-01-17 10:17:00,30.1,20.5,30.13,NNE,16,0.0,-999.0,67,0.00,,,0.00,Wunderground v.1.15,2013-01-17 15:17:00,
2013-01-17 10:18:00,30.3,20.6,30.13,North,356,0.0,-999.0,67,0.00,,,0.00,Wunderground v.1.15,2013-01-17 15:18:00,
2013-01-17 10:19:00,30.3,20.6,30.13,North,356,0.0,-999.0,67,0.00,,,0.00,Wunderground v.1.15,2013-01-17 15:19:00,
2013-01-17 10:21:00,30.3,20.6,30.13,North,356,1.0,-999.0,67,0.00,,,0.00,Wunderground v.1.15,2013-01-17 15:21:00,
2013-01-17 10:23:00,30.4,20.7,30.13,North,356,0.0,-999.0,67,0.00,,,0.00,Wunderground v.1.15,2013-01-17 15:23:00,
2013-01-17 10:25:00,30.4,20.7,30.13,NW,323,0.0,-999.0,67,0.00,,,0.00,Wunderground v.1.15,2013-01-17 15:25:00,
2013-01-17 10:26:00,30.6,20.9,30.13,NW,323,0.0,-999.0,67,0.00,,,0.00,Wunderground v.1.15,2013-01-17 15:26:00,
2013-01-17 10:28:00,30.6,20.9,30.13,NW,323,0.0,-999.0,67,0.00,,,0.00,Wunderground v.1.15,2013-01-17 15:28:00,
2013-01-17 10:29:00,30.6,20.9,30.13,NW,322,0.0,-999.0,67,0.00,,,0.00,Wunderground v.1.15,2013-01-17 15:29:00,
2013-01-17 10:30:00,30.7,21.0,30.12,WNW,301,2.0,-999.0,67,0.00,,,0.00,Wunderground v.1.15,2013-01-17 15:30:00,
2013-01-17 10:31:00,30.7,21.0,30.12,NW,318,3.0,-999.0,67,0.00,,,0.00,Wunderground v.1.15,2013-01-17 15:31:00,
2013-01-17 10:33:00,30.7,21.0,30.12,NW,320,0.0,-999.0,67,0.00,,,0.00,Wunderground v.1.15,2013-01-17 15:33:00,
2013-01-17 10:34:00,30.7,20.3,30.12,NNW,340,1.0,-999.0,65,0.00,,,0.00,Wunderground v.1.15,2013-01-17 15:34:00,
2013-01-17 10:36:00,30.9,20.5,30.12,NNW,340,0.0,-999.0,65,0.00,,,0.00,Wunderground v.1.15,2013-01-17 15:36:00,
2013-01-17 10:38:00,31.0,20.6,30.12,WNW,299,2.0,-999.0,65,0.00,,,0.00,Wunderground v.1.15,2013-01-17 15:38:00,
2013-01-17 10:40:00,31.0,20.6,30.12,WNW,299,0.0,-999.0,65,0.00,,,0.00,Wunderground v.1.15,2013-01-17 15:40:00,
2013-01-17 10:42:00,31.0,20.6,30.12,North,353,3.0,-999.0,65,0.00,,,0.00,Wunderground v.1.15,2013-01-17 15:42:00,
2013-01-17 10:44:00,31.0,20.6,30.12,NNW,339,0.0,-999.0,65,0.00,,,0.00,Wunderground v.1.15,2013-01-17 15:44:00,
2013-01-17 10:46:00,31.0,20.6,30.13,NNW,340,2.0,-999.0,65,0.00,,,0.00,Wunderground v.1.15,2013-01-17 15:46:00,
2013-01-17 10:47:00,31.0,20.6,30.13,NW,319,2.0,-999.0,65,0.00,,,0.00,Wunderground v.1.15,2013-01-17 15:47:00,
2013-01-17 10:48:00,31.2,20.8,30.13,NNW,329,1.0,-999.0,65,0.00,,,0.00,Wunderground v.1.15,2013-01-17 15:48:00,
2013-01-17 10:49:00,31.2,20.1,30.13,WNW,299,2.0,-999.0,63,0.00,,,0.00,Wunderground v.1.15,2013-01-17 15:49:00,
2013-01-17 10:52:00,31.2,20.1,30.13,NW,304,0.0,-999.0,63,0.00,,,0.00,Wunderground v.1.15,2013-01-17 15:52:00,
2013-01-17 10:53:00,31.2,20.1,30.13,NW,323,2.0,-999.0,63,0.00,,,0.00,Wunderground v.1.15,2013-01-17 15:53:00,
2013-01-17 10:55:00,31.2,20.1,30.13,WNW,295,5.0,-999.0,63,0.00,,,0.00,Wunderground v.1.15,2013-01-17 15:55:00,
2013-01-17 10:57:00,31.3,20.2,30.13,NW,304,5.0,-999.0,63,0.00,,,0.00,Wunderground v.1.15,2013-01-17 15:57:00,
2013-01-17 10:58:00,31.3,20.2,30.13,NW,305,2.0,-999.0,63,0.00,,,0.00,Wunderground v.1.15,2013-01-17 15:58:00,
2013-01-17 10:59:00,31.3,20.2,30.13,NNW,337,2.0,-999.0,63,0.00,,,0.00,Wunderground v.1.15,2013-01-17 15:59:00,
2013-01-17 11:01:00,31.5,20.3,30.13,NNW,333,3.0,-999.0,63,0.00,,,0.00,Wunderground v.1.15,2013-01-17 16:01:00,
2013-01-17 11:02:00,31.5,20.3,30.13,NW,305,1.0,-999.0,63,0.00,,,0.00,Wunderground v.1.15,2013-01-17 16:02:00,
2013-01-17 11:03:00,31.5,20.3,30.13,WNW,298,2.0,-999.0,63,0.00,,,0.00,Wunderground v.1.15,2013-01-17 16:03:00,
2013-01-17 11:04:00,31.5,20.3,30.13,North,0,6.0,-999.0,63,0.00,,,0.00,Wunderground v.1.15,2013-01-17 16:04:00,
2013-01-17 11:06:00,31.5,20.3,30.13,North,353,3.0,-999.0,63,0.00,,,0.00,Wunderground v.1.15,2013-01-17 16:06:00,
2013-01-17 11:08:00,31.5,19.2,30.13,WNW,295,5.0,-999.0,60,0.00,,,0.00,Wunderground v.1.15,2013-01-17 16:08:00,
2013-01-17 11:09:00,31.5,19.2,30.13,WNW,295,5.0,-999.0,60,0.00,,,0.00,Wunderground v.1.15,2013-01-17 16:09:00,
2013-01-17 11:11:00,31.5,19.2,30.13,NW,305,3.0,-999.0,60,0.00,,,0.00,Wunderground v.1.15,2013-01-17 16:11:00,
2013-01-17 11:14:00,31.5,19.2,30.13,WSW,240,4.0,-999.0,60,0.00,,,0.00,Wunderground v.1.15,2013-01-17 16:14:00,
2013-01-17 11:15:00,31.5,18.8,30.13,WNW,299,0.0,-999.0,59,0.00,,,0.00,Wunderground v.1.15,2013-01-17 16:15:00,
2013-01-17 11:17:00,31.5,19.2,30.13,WNW,299,2.0,-999.0,60,0.00,,,0.00,Wunderground v.1.15,2013-01-17 16:17:00,
2013-01-17 11:19:00,31.5,19.2,30.13,WNW,296,0.0,-999.0,60,0.00,,,0.00,Wunderground v.1.15,2013-01-17 16:19:00,
2013-01-17 11:20:00,31.5,19.2,30.13,WNW,296,0.0,-999.0,60,0.00,,,0.00,Wunderground v.1.15,2013-01-17 16:20:00,
2013-01-17 11:22:00,31.5,19.2,30.13,WNW,296,0.0,-999.0,60,0.00,,,0.00,Wunderground v.1.15,2013-01-17 16:22:00,
2013-01-17 11:25:00,31.8,19.1,30.13,NW,319,2.0,-999.0,59,0.00,,,0.00,Wunderground v.1.15,2013-01-17 16:25:00,
2013-01-17 11:26:00,31.8,19.1,30.13,NW,304,1.0,-999.0,59,0.00,,,0.00,Wunderground v.1.15,2013-01-17 16:26:00,
2013-01-17 11:28:00,31.8,19.1,30.13,WNW,302,5.0,-999.0,59,0.00,,,0.00,Wunderground v.1.15,2013-01-17 16:28:00,
2013-01-17 11:30:00,31.8,19.1,30.13,NNW,329,3.0,-999.0,59,0.00,,,0.00,Wunderground v.1.15,2013-01-17 16:30:00,
2013-01-17 11:31:00,31.9,19.2,30.13,WSW,243,0.0,-999.0,59,0.00,,,0.00,Wunderground v.1.15,2013-01-17 16:31:00,
2013-01-17 11:33:00,31.9,19.2,30.13,West,274,5.0,-999.0,59,0.00,,,0.00,Wunderground v.1.15,2013-01-17 16:33:00,
2013-01-17 11:35:00,32.1,19.4,30.13,WNW,299,6.0,-999.0,59,0.00,,,0.00,Wunderground v.1.15,2013-01-17 16:35:00,
2013-01-17 11:37:00,32.1,19.4,30.13,West,278,6.0,-999.0,59,0.00,,,0.00,Wunderground v.1.15,2013-01-17 16:37:00,
2013-01-17 11:39:00,32.1,19.4,30.13,West,278,6.0,-999.0,59,0.00,,,0.00,Wunderground v.1.15,2013-01-17 16:39:00,
2013-01-17 11:41:00,31.9,17.5,30.13,WNW,302,5.0,-999.0,55,0.00,,,0.00,Wunderground v.1.15,2013-01-17 16:41:00,
2013-01-17 11:42:00,31.9,17.5,30.13,NW,304,1.0,-999.0,55,0.00,,,0.00,Wunderground v.1.15,2013-01-17 16:42:00,
2013-01-17 11:44:00,31.9,17.5,30.13,NNW,333,6.0,-999.0,55,0.00,,,0.00,Wunderground v.1.15,2013-01-17 16:44:00,
2013-01-17 11:46:00,31.9,17.5,30.12,NW,312,5.0,-999.0,55,0.00,,,0.00,Wunderground v.1.15,2013-01-17 16:46:00,
2013-01-17 11:47:00,31.9,17.5,30.12,NW,309,2.0,-999.0,55,0.00,,,0.00,Wunderground v.1.15,2013-01-17 16:47:00,
2013-01-17 11:49:00,31.8,17.5,30.12,NW,306,5.0,-999.0,55,0.00,,,0.00,Wunderground v.1.15,2013-01-17 16:49:00,
2013-01-17 11:52:00,31.9,17.5,30.12,WNW,301,5.0,-999.0,55,0.00,,,0.00,Wunderground v.1.15,2013-01-17 16:52:00,
2013-01-17 11:53:00,31.9,17.5,30.12,WNW,285,3.0,-999.0,55,0.00,,,0.00,Wunderground v.1.15,2013-01-17 16:53:00,
2013-01-17 11:55:00,32.2,17.8,30.12,NNW,336,5.0,-999.0,55,0.00,,,0.00,Wunderground v.1.15,2013-01-17 16:55:00,
2013-01-17 11:57:00,32.2,17.8,30.12,WNW,294,6.0,-999.0,55,0.00,,,0.00,Wunderground v.1.15,2013-01-17 16:57:00,
2013-01-17 11:58:00,32.2,17.8,30.12,NW,315,11.0,-999.0,55,0.00,,,0.00,Wunderground v.1.15,2013-01-17 16:58:00,
2013-01-17 12:01:00,32.2,17.4,30.11,NW,318,3.0,-999.0,54,0.00,,,0.00,Wunderground v.1.15,2013-01-17 17:01:00,
2013-01-17 12:02:00,32.1,17.3,30.11,NW,309,6.0,-999.0,54,0.00,,,0.00,Wunderground v.1.15,2013-01-17 17:02:00,
2013-01-17 12:03:00,32.1,17.3,30.11,North,0,8.0,-999.0,54,0.00,,,0.00,Wunderground v.1.15,2013-01-17 17:03:00,
2013-01-17 12:04:00,32.1,17.3,30.11,North,0,8.0,-999.0,54,0.00,,,0.00,Wunderground v.1.15,2013-01-17 17:04:00,
2013-01-17 12:06:00,32.1,17.3,30.11,NW,316,2.0,-999.0,54,0.00,,,0.00,Wunderground v.1.15,2013-01-17 17:06:00,
2013-01-17 12:07:00,31.9,17.1,30.11,North,3,6.0,-999.0,54,0.00,,,0.00,Wunderground v.1.15,2013-01-17 17:07:00,
2013-01-17 12:08:00,31.9,17.1,30.11,NW,322,8.0,-999.0,54,0.00,,,0.00,Wunderground v.1.15,2013-01-17 17:08:00,
2013-01-17 12:09:00,31.9,17.1,30.11,NW,323,7.0,-999.0,54,0.00,,,0.00,Wunderground v.1.15,2013-01-17 17:09:00,
2013-01-17 12:11:00,31.8,17.0,30.11,WNW,296,2.0,-999.0,54,0.00,,,0.00,Wunderground v.1.15,2013-01-17 17:11:00,
2013-01-17 12:12:00,31.6,16.8,30.11,NW,313,2.0,-999.0,54,0.00,,,0.00,Wunderground v.1.15,2013-01-17 17:12:00,
2013-01-17 12:13:00,31.6,16.8,30.11,NW,313,2.0,-999.0,54,0.00,,,0.00,Wunderground v.1.15,2013-01-17 17:13:00,
2013-01-17 12:14:00,31.6,16.8,30.11,WNW,302,7.0,-999.0,54,0.00,,,0.00,Wunderground v.1.15,2013-01-17 17:14:00,
2013-01-17 12:16:00,31.8,17.0,30.11,WNW,301,3.0,-999.0,54,0.00,,,0.00,Wunderground v.1.15,2013-01-17 17:16:00,
2013-01-17 12:17:00,31.8,17.0,30.11,WNW,301,3.0,-999.0,54,0.00,,,0.00,Wunderground v.1.15,2013-01-17 17:17:00,
2013-01-17 12:18:00,32.1,17.3,30.11,WNW,298,3.0,-999.0,54,0.00,,,0.00,Wunderground v.1.15,2013-01-17 17:18:00,
2013-01-17 12:20:00,32.1,17.3,30.11,WSW,257,5.0,-999.0,54,0.00,,,0.00,Wunderground v.1.15,2013-01-17 17:20:00,
2013-01-17 12:22:00,32.1,17.3,30.11,NNW,330,7.0,-999.0,54,0.00,,,0.00,Wunderground v.1.15,2013-01-17 17:22:00,
2013-01-17 12:24:00,32.2,17.4,30.11,NNW,343,3.0,-999.0,54,0.00,,,0.00,Wunderground v.1.15,2013-01-17 17:24:00,
2013-01-17 12:25:00,32.5,17.7,30.11,North,356,6.0,-999.0,54,0.00,,,0.00,Wunderground v.1.15,2013-01-17 17:25:00,
2013-01-17 12:27:00,32.5,17.7,30.11,North,356,6.0,-999.0,54,0.00,,,0.00,Wunderground v.1.15,2013-01-17 17:27:00,
2013-01-17 12:29:00,32.5,17.7,30.11,NW,318,5.0,-999.0,54,0.00,,,0.00,Wunderground v.1.15,2013-01-17 17:29:00,
2013-01-17 12:31:00,32.7,17.9,30.10,WNW,289,6.0,-999.0,54,0.00,,,0.00,Wunderground v.1.15,2013-01-17 17:31:00,
2013-01-17 12:32:00,32.7,17.9,30.10,NW,306,6.0,-999.0,54,0.00,,,0.00,Wunderground v.1.15,2013-01-17 17:32:00,
2013-01-17 12:34:00,32.8,18.0,30.10,North,349,2.0,-999.0,54,0.00,,,0.00,Wunderground v.1.15,2013-01-17 17:34:00,
2013-01-17 12:36:00,32.8,18.0,30.10,NW,316,8.0,-999.0,54,0.00,,,0.00,Wunderground v.1.15,2013-01-17 17:36:00,
2013-01-17 12:37:00,32.8,18.0,30.10,WNW,296,4.0,-999.0,54,0.00,,,0.00,Wunderground v.1.15,2013-01-17 17:37:00,
2013-01-17 12:39:00,32.8,17.1,30.10,NW,311,5.0,-999.0,52,0.00,,,0.00,Wunderground v.1.15,2013-01-17 17:39:00,
2013-01-17 12:40:00,32.8,17.1,30.10,NW,312,3.0,-999.0,52,0.00,,,0.00,Wunderground v.1.15,2013-01-17 17:40:00,
2013-01-17 12:41:00,32.8,17.1,30.10,NNW,329,5.0,-999.0,52,0.00,,,0.00,Wunderground v.1.15,2013-01-17 17:41:00,
2013-01-17 12:43:00,32.9,17.2,30.10,WNW,302,3.0,-999.0,52,0.00,,,0.00,Wunderground v.1.15,2013-01-17 17:43:00,
2013-01-17 12:45:00,32.9,17.2,30.10,WSW,248,1.0,-999.0,52,0.00,,,0.00,Wunderground v.1.15,2013-01-17 17:45:00,
2013-01-17 12:47:00,32.8,17.1,30.09,NW,318,1.0,-999.0,52,0.00,,,0.00,Wunderground v.1.15,2013-01-17 17:47:00,
2013-01-17 12:48:00,32.8,17.1,30.09,NW,323,5.0,-999.0,52,0.00,,,0.00,Wunderground v.1.15,2013-01-17 17:48:00,
2013-01-17 12:50:00,32.7,17.0,30.09,WNW,302,2.0,-999.0,52,0.00,,,0.00,Wunderground v.1.15,2013-01-17 17:50:00,
2013-01-17 12:52:00,32.5,16.8,30.09,NW,308,6.0,-999.0,52,0.00,,,0.00,Wunderground v.1.15,2013-01-17 17:52:00,
2013-01-17 12:53:00,32.5,16.8,30.09,NW,308,6.0,-999.0,52,0.00,,,0.00,Wunderground v.1.15,2013-01-17 17:53:00,
2013-01-17 12:55:00,32.4,16.7,30.09,NNW,347,5.0,-999.0,52,0.00,,,0.00,Wunderground v.1.15,2013-01-17 17:55:00,
2013-01-17 12:58:00,32.4,16.7,30.09,NW,323,5.0,-999.0,52,0.00,,,0.00,Wunderground v.1.15,2013-01-17 17:58:00,
2013-01-17 13:00:00,32.4,16.7,30.09,NW,305,4.0,-999.0,52,0.00,,,0.00,Wunderground v.1.15,2013-01-17 18:00:00,
2013-01-17 13:03:00,32.4,16.7,30.09,NNW,337,3.0,-999.0,52,0.00,,,0.00,Wunderground v.1.15,2013-01-17 18:03:00,
2013-01-17 13:04:00,32.4,16.7,30.09,NNW,337,3.0,-999.0,52,0.00,,,0.00,Wunderground v.1.15,2013-01-17 18:04:00,
2013-01-17 13:05:00,32.2,16.5,30.09,NW,325,6.0,-999.0,52,0.00,,,0.00,Wunderground v.1.15,2013-01-17 18:05:00,
2013-01-17 13:08:00,32.4,16.7,30.09,NW,320,2.0,-999.0,52,0.00,,,0.00,Wunderground v.1.15,2013-01-17 18:08:00,
2013-01-17 13:09:00,32.4,16.7,30.09,WNW,298,2.0,-999.0,52,0.00,,,0.00,Wunderground v.1.15,2013-01-17 18:09:00,
2013-01-17 13:10:00,32.4,16.7,30.09,WNW,298,2.0,-999.0,52,0.00,,,0.00,Wunderground v.1.15,2013-01-17 18:10:00,
2013-01-17 13:14:00,32.4,16.7,30.09,WSW,254,0.0,-999.0,52,0.00,,,0.00,Wunderground v.1.15,2013-01-17 18:14:00,
2013-01-17 13:16:00,32.4,17.2,30.08,NW,306,2.0,-999.0,53,0.00,,,0.00,Wunderground v.1.15,2013-01-17 18:16:00,
2013-01-17 13:19:00,32.5,17.2,30.08,NW,311,2.0,-999.0,53,0.00,,,0.00,Wunderground v.1.15,2013-01-17 18:19:00,
2013-01-17 13:20:00,32.5,17.2,30.08,NW,316,0.0,-999.0,53,0.00,,,0.00,Wunderground v.1.15,2013-01-17 18:20:00,
2013-01-17 13:21:00,32.7,17.0,30.08,NNW,340,5.0,-999.0,52,0.00,,,0.00,Wunderground v.1.15,2013-01-17 18:21:00,
2013-01-17 13:24:00,32.8,17.1,30.08,NW,316,4.0,-999.0,52,0.00,,,0.00,Wunderground v.1.15,2013-01-17 18:24:00,
2013-01-17 13:25:00,32.9,17.2,30.08,NW,306,5.0,-999.0,52,0.00,,,0.00,Wunderground v.1.15,2013-01-17 18:25:00,
2013-01-17 13:27:00,32.8,17.1,30.08,WNW,301,1.0,-999.0,52,0.00,,,0.00,Wunderground v.1.15,2013-01-17 18:27:00,
2013-01-17 13:29:00,32.8,17.1,30.08,NNE,13,1.0,-999.0,52,0.00,,,0.00,Wunderground v.1.15,2013-01-17 18:29:00,
2013-01-17 13:30:00,32.8,17.1,30.08,North,353,3.0,-999.0,52,0.00,,,0.00,Wunderground v.1.15,2013-01-17 18:30:00,
2013-01-17 13:32:00,32.9,16.7,30.07,NW,306,2.0,-999.0,51,0.00,,,0.00,Wunderground v.1.15,2013-01-17 18:32:00,
2013-01-17 13:34:00,32.9,16.7,30.07,NW,326,1.0,-999.0,51,0.00,,,0.00,Wunderground v.1.15,2013-01-17 18:34:00,
2013-01-17 13:35:00,32.9,16.7,30.07,NW,326,1.0,-999.0,51,0.00,,,0.00,Wunderground v.1.15,2013-01-17 18:35:00,
2013-01-17 13:36:00,32.9,16.7,30.07,NW,326,1.0,-999.0,51,0.00,,,0.00,Wunderground v.1.15,2013-01-17 18:36:00,
2013-01-17 13:38:00,32.9,16.7,30.07,NW,313,5.0,-999.0,51,0.00,,,0.00,Wunderground v.1.15,2013-01-17 18:38:00,
2013-01-17 13:40:00,33.1,16.9,30.07,WNW,298,3.0,-999.0,51,0.00,,,0.00,Wunderground v.1.15,2013-01-17 18:40:00,
2013-01-17 13:41:00,33.1,16.9,30.07,NW,309,1.0,-999.0,51,0.00,,,0.00,Wunderground v.1.15,2013-01-17 18:41:00,
2013-01-17 13:43:00,33.1,16.9,30.07,North,353,1.0,-999.0,51,0.00,,,0.00,Wunderground v.1.15,2013-01-17 18:43:00,
2013-01-17 13:45:00,33.2,17.0,30.07,NW,308,1.0,-999.0,51,0.00,,,0.00,Wunderground v.1.15,2013-01-17 18:45:00,
2013-01-17 13:46:00,33.2,17.0,30.07,WNW,296,2.0,-999.0,51,0.00,,,0.00,Wunderground v.1.15,2013-01-17 18:46:00,
2013-01-17 13:49:00,34.0,17.7,30.07,WNW,296,3.0,-999.0,51,0.00,,,0.00,Wunderground v.1.15,2013-01-17 18:49:00,
2013-01-17 13:50:00,34.0,17.3,30.07,NW,319,5.0,-999.0,50,0.00,,,0.00,Wunderground v.1.15,2013-01-17 18:50:00,
2013-01-17 13:51:00,34.1,17.4,30.07,NW,311,2.0,-999.0,50,0.00,,,0.00,Wunderground v.1.15,2013-01-17 18:51:00,
2013-01-17 13:52:00,34.1,17.4,30.07,West,274,3.0,-999.0,50,0.00,,,0.00,Wunderground v.1.15,2013-01-17 18:52:00,
2013-01-17 13:54:00,34.1,17.4,30.07,NNW,329,3.0,-999.0,50,0.00,,,0.00,Wunderground v.1.15,2013-01-17 18:54:00,
2013-01-17 13:55:00,34.1,17.4,30.07,NW,320,5.0,-999.0,50,0.00,,,0.00,Wunderground v.1.15,2013-01-17 18:55:00,
2013-01-17 13:57:00,34.0,17.3,30.07,NW,315,1.0,-999.0,50,0.00,,,0.00,Wunderground v.1.15,2013-01-17 18:57:00,
2013-01-17 14:00:00,33.8,17.1,30.07,NW,309,6.0,-999.0,50,0.00,,,0.00,Wunderground v.1.15,2013-01-17 19:00:00,
2013-01-17 14:02:00,33.5,16.8,30.07,NW,319,3.0,-999.0,50,0.00,,,0.00,Wunderground v.1.15,2013-01-17 19:02:00,
2013-01-17 14:05:00,33.5,16.8,30.07,WNW,288,3.0,-999.0,50,0.00,,,0.00,Wunderground v.1.15,2013-01-17 19:05:00,
2013-01-17 14:06:00,33.5,16.8,30.07,NW,304,2.0,-999.0,50,0.00,,,0.00,Wunderground v.1.15,2013-01-17 19:06:00,
2013-01-17 14:07:00,33.7,17.0,30.07,West,278,4.0,-999.0,50,0.00,,,0.00,Wunderground v.1.15,2013-01-17 19:07:00,
2013-01-17 14:08:00,33.7,17.0,30.07,WSW,253,4.0,-999.0,50,0.00,,,0.00,Wunderground v.1.15,2013-01-17 19:08:00,
2013-01-17 14:10:00,33.7,17.0,30.07,NW,313,7.0,-999.0,50,0.00,,,0.00,Wunderground v.1.15,2013-01-17 19:10:00,
2013-01-17 14:11:00,33.7,17.0,30.07,WSW,257,2.0,-999.0,50,0.00,,,0.00,Wunderground v.1.15,2013-01-17 19:11:00,
2013-01-17 14:13:00,33.5,16.8,30.07,West,264,3.0,-999.0,50,0.00,,,0.00,Wunderground v.1.15,2013-01-17 19:13:00,
2013-01-17 14:16:00,33.7,17.5,30.07,NW,308,3.0,-999.0,51,0.00,,,0.00,Wunderground v.1.15,2013-01-17 19:16:00,
2013-01-17 14:17:00,33.7,17.5,30.07,NNW,339,3.0,-999.0,51,0.00,,,0.00,Wunderground v.1.15,2013-01-17 19:17:00,
2013-01-17 14:18:00,33.7,17.5,30.07,WNW,289,6.0,-999.0,51,0.00,,,0.00,Wunderground v.1.15,2013-01-17 19:18:00,
2013-01-17 14:22:00,34.0,17.7,30.07,NW,318,1.0,-999.0,51,0.00,,,0.00,Wunderground v.1.15,2013-01-17 19:22:00,
2013-01-17 14:23:00,34.0,17.7,30.07,NW,316,7.0,-999.0,51,0.00,,,0.00,Wunderground v.1.15,2013-01-17 19:23:00,
2013-01-17 14:24:00,34.0,17.7,30.07,NW,313,5.0,-999.0,51,0.00,,,0.00,Wunderground v.1.15,2013-01-17 19:24:00,
2013-01-17 14:28:00,34.1,17.8,30.07,WNW,299,3.0,-999.0,51,0.00,,,0.00,Wunderground v.1.15,2013-01-17 19:28:00,
2013-01-17 14:29:00,34.1,17.8,30.07,NW,313,2.0,-999.0,51,0.00,,,0.00,Wunderground v.1.15,2013-01-17 19:29:00,
2013-01-17 14:33:00,34.1,17.8,30.06,NW,309,3.0,-999.0,51,0.00,,,0.00,Wunderground v.1.15,2013-01-17 19:33:00,
2013-01-17 14:34:00,34.1,17.8,30.06,NW,309,3.0,-999.0,51,0.00,,,0.00,Wunderground v.1.15,2013-01-17 19:34:00,
2013-01-17 14:35:00,34.1,17.8,30.06,NW,309,1.0,-999.0,51,0.00,,,0.00,Wunderground v.1.15,2013-01-17 19:35:00,
2013-01-17 14:39:00,34.1,17.8,30.06,NW,318,2.0,-999.0,51,0.00,,,0.00,Wunderground v.1.15,2013-01-17 19:39:00,
2013-01-17 14:41:00,34.4,18.1,30.06,WNW,295,3.0,-999.0,51,0.00,,,0.00,Wunderground v.1.15,2013-01-17 19:41:00,
2013-01-17 14:44:00,34.6,18.8,30.06,NW,319,2.0,-999.0,52,0.00,,,0.00,Wunderground v.1.15,2013-01-17 19:44:00,
2013-01-17 14:45:00,34.7,18.9,30.06,NW,319,11.0,-999.0,52,0.00,,,0.00,Wunderground v.1.15,2013-01-17 19:45:00,
2013-01-17 14:46:00,34.7,18.9,30.06,NW,319,11.0,-999.0,52,0.00,,,0.00,Wunderground v.1.15,2013-01-17 19:46:00,
2013-01-17 14:49:00,34.1,18.3,30.06,NW,323,11.0,-999.0,52,0.00,,,0.00,Wunderground v.1.15,2013-01-17 19:49:00,
2013-01-17 14:50:00,33.8,18.0,30.06,North,0,6.0,-999.0,52,0.00,,,0.00,Wunderground v.1.15,2013-01-17 19:50:00,
2013-01-17 14:51:00,33.8,18.0,30.06,North,0,6.0,-999.0,52,0.00,,,0.00,Wunderground v.1.15,2013-01-17 19:51:00,
2013-01-17 14:52:00,33.7,17.9,30.06,WNW,299,5.0,-999.0,52,0.00,,,0.00,Wunderground v.1.15,2013-01-17 19:52:00,
2013-01-17 14:55:00,33.4,17.6,30.06,NW,309,5.0,-999.0,52,0.00,,,0.00,Wunderground v.1.15,2013-01-17 19:55:00,
2013-01-17 14:56:00,33.4,17.6,30.06,WNW,289,1.0,-999.0,52,0.00,,,0.00,Wunderground v.1.15,2013-01-17 19:56:00,
2013-01-17 14:57:00,33.4,17.6,30.06,WNW,289,1.0,-999.0,52,0.00,,,0.00,Wunderground v.1.15,2013-01-17 19:57:00,
2013-01-17 15:00:00,33.5,18.2,30.06,WNW,299,5.0,-999.0,53,0.00,,,0.00,Wunderground v.1.15,2013-01-17 20:00:00,
2013-01-17 15:02:00,33.8,18.5,30.06,WNW,291,3.0,-999.0,53,0.00,,,0.00,Wunderground v.1.15,2013-01-17 20:02:00,
2013-01-17 15:06:00,33.8,18.5,30.06,NW,311,2.0,-999.0,53,0.00,,,0.00,Wunderground v.1.15,2013-01-17 20:06:00,
2013-01-17 15:07:00,34.0,18.6,30.06,NW,308,0.0,-999.0,53,0.00,,,0.00,Wunderground v.1.15,2013-01-17 20:07:00,
2013-01-17 15:11:00,33.8,18.5,30.06,NW,325,3.0,-999.0,53,0.00,,,0.00,Wunderground v.1.15,2013-01-17 20:11:00,
2013-01-17 15:12:00,33.5,18.6,30.06,NNW,329,6.0,-999.0,54,0.00,,,0.00,Wunderground v.1.15,2013-01-17 20:12:00,
2013-01-17 15:16:00,33.2,18.3,30.06,NW,312,11.0,-999.0,54,0.00,,,0.00,Wunderground v.1.15,2013-01-17 20:16:00,
2013-01-17 15:17:00,33.2,18.3,30.06,NW,312,11.0,-999.0,54,0.00,,,0.00,Wunderground v.1.15,2013-01-17 20:17:00,
2013-01-17 15:18:00,33.2,18.3,30.06,NW,305,3.0,-999.0,54,0.00,,,0.00,Wunderground v.1.15,2013-01-17 20:18:00,
2013-01-17 15:22:00,32.9,18.1,30.06,WNW,301,5.0,-999.0,54,0.00,,,0.00,Wunderground v.1.15,2013-01-17 20:22:00,
2013-01-17 15:23:00,32.9,18.1,30.06,NW,304,3.0,-999.0,54,0.00,,,0.00,Wunderground v.1.15,2013-01-17 20:23:00,
2013-01-17 15:27:00,32.8,18.0,30.06,WNW,299,1.0,-999.0,54,0.00,,,0.00,Wunderground v.1.15,2013-01-17 20:27:00,
2013-01-17 15:28:00,32.8,18.0,30.06,North,0,1.0,-999.0,54,0.00,,,0.00,Wunderground v.1.15,2013-01-17 20:28:00,
2013-01-17 15:32:00,32.7,18.3,30.06,NW,325,5.0,-999.0,55,0.00,,,0.00,Wunderground v.1.15,2013-01-17 20:32:00,
2013-01-17 15:33:00,32.5,18.1,30.06,West,281,5.0,-999.0,55,0.00,,,0.00,Wunderground v.1.15,2013-01-17 20:33:00,
2013-01-17 15:34:00,32.5,18.1,30.06,WNW,292,6.0,-999.0,55,0.00,,,0.00,Wunderground v.1.15,2013-01-17 20:34:00,
2013-01-17 15:37:00,32.2,17.8,30.06,NW,306,7.0,-999.0,55,0.00,,,0.00,Wunderground v.1.15,2013-01-17 20:37:00,
2013-01-17 15:38:00,32.2,17.8,30.06,NW,319,3.0,-999.0,55,0.00,,,0.00,Wunderground v.1.15,2013-01-17 20:38:00,
2013-01-17 15:39:00,32.2,17.8,30.06,NW,319,3.0,-999.0,55,0.00,,,0.00,Wunderground v.1.15,2013-01-17 20:39:00,
2013-01-17 15:43:00,31.9,17.5,30.06,WNW,299,1.0,-999.0,55,0.00,,,0.00,Wunderground v.1.15,2013-01-17 20:43:00,
2013-01-17 15:44:00,31.9,17.5,30.06,WNW,299,1.0,-999.0,55,0.00,,,0.00,Wunderground v.1.15,2013-01-17 20:44:00,
2013-01-17 15:46:00,31.9,17.5,30.06,WNW,302,2.0,-999.0,55,0.00,,,0.00,Wunderground v.1.15,2013-01-17 20:46:00,
2013-01-17 15:48:00,31.9,17.5,30.06,NW,311,4.0,-999.0,55,0.00,,,0.00,Wunderground v.1.15,2013-01-17 20:48:00,
2013-01-17 15:50:00,31.9,17.5,30.06,WNW,285,5.0,-999.0,55,0.00,,,0.00,Wunderground v.1.15,2013-01-17 20:50:00,
2013-01-17 15:51:00,31.8,17.0,30.06,WNW,301,6.0,-999.0,54,0.00,,,0.00,Wunderground v.1.15,2013-01-17 20:51:00,
2013-01-17 15:53:00,31.8,17.0,30.06,NW,311,3.0,-999.0,54,0.00,,,0.00,Wunderground v.1.15,2013-01-17 20:53:00,
2013-01-17 15:55:00,31.8,17.0,30.06,North,0,2.0,-999.0,54,0.00,,,0.00,Wunderground v.1.15,2013-01-17 20:55:00,
2013-01-17 15:56:00,31.8,17.0,30.06,North,0,2.0,-999.0,54,0.00,,,0.00,Wunderground v.1.15,2013-01-17 20:56:00,
2013-01-17 15:59:00,31.6,16.8,30.06,West,261,3.0,-999.0,54,0.00,,,0.00,Wunderground v.1.15,2013-01-17 20:59:00,
2013-01-17 16:00:00,31.5,16.7,30.06,WNW,296,2.0,-999.0,54,0.00,,,0.00,Wunderground v.1.15,2013-01-17 21:00:00,
2013-01-17 16:02:00,31.5,16.3,30.07,NW,304,3.0,-999.0,53,0.00,,,0.00,Wunderground v.1.15,2013-01-17 21:02:00,
2013-01-17 16:04:00,31.5,16.3,30.07,NW,318,3.0,-999.0,53,0.00,,,0.00,Wunderground v.1.15,2013-01-17 21:04:00,
2013-01-17 16:05:00,31.5,16.3,30.07,NW,306,3.0,-999.0,53,0.00,,,0.00,Wunderground v.1.15,2013-01-17 21:05:00,
2013-01-17 16:07:00,31.5,16.3,30.07,WNW,301,4.0,-999.0,53,0.00,,,0.00,Wunderground v.1.15,2013-01-17 21:07:00,
2013-01-17 16:08:00,31.5,16.3,30.07,NW,306,3.0,-999.0,53,0.00,,,0.00,Wunderground v.1.15,2013-01-17 21:08:00,
2013-01-17 16:09:00,31.6,16.4,30.07,NW,313,3.0,-999.0,53,0.00,,,0.00,Wunderground v.1.15,2013-01-17 21:09:00,
2013-01-17 16:11:00,31.6,16.4,30.07,NW,313,3.0,-999.0,53,0.00,,,0.00,Wunderground v.1.15,2013-01-17 21:11:00,
2013-01-17 16:12:00,31.6,16.4,30.07,NW,313,3.0,-999.0,53,0.00,,,0.00,Wunderground v.1.15,2013-01-17 21:12:00,
2013-01-17 16:13:00,31.6,16.4,30.07,NNE,17,8.0,-999.0,53,0.00,,,0.00,Wunderground v.1.15,2013-01-17 21:13:00,
2013-01-17 16:14:00,31.6,16.4,30.07,NNW,347,4.0,-999.0,53,0.00,,,0.00,Wunderground v.1.15,2013-01-17 21:14:00,
2013-01-17 16:16:00,31.3,16.1,30.08,NNW,329,3.0,-999.0,53,0.00,,,0.00,Wunderground v.1.15,2013-01-17 21:16:00,
2013-01-17 16:17:00,31.3,16.1,30.08,NNW,329,3.0,-999.0,53,0.00,,,0.00,Wunderground v.1.15,2013-01-17 21:17:00,
2013-01-17 16:19:00,31.3,16.1,30.08,NW,325,4.0,-999.0,53,0.00,,,0.00,Wunderground v.1.15,2013-01-17 21:19:00,
2013-01-17 16:20:00,31.3,16.1,30.08,NW,316,5.0,-999.0,53,0.00,,,0.00,Wunderground v.1.15,2013-01-17 21:20:00,
2013-01-17 16:21:00,31.2,16.0,30.08,NW,322,7.0,-999.0,53,0.00,,,0.00,Wunderground v.1.15,2013-01-17 21:21:00,
2013-01-17 16:22:00,31.2,17.3,30.08,NNW,329,0.0,-999.0,56,0.00,,,0.00,Wunderground v.1.15,2013-01-17 21:22:00,
2013-01-17 16:24:00,31.0,17.1,30.08,North,0,3.0,-999.0,56,0.00,,,0.00,Wunderground v.1.15,2013-01-17 21:24:00,
2013-01-17 16:26:00,31.0,17.1,30.08,West,281,1.0,-999.0,56,0.00,,,0.00,Wunderground v.1.15,2013-01-17 21:26:00,
2013-01-17 16:27:00,30.9,17.0,30.08,NNE,30,0.0,-999.0,56,0.00,,,0.00,Wunderground v.1.15,2013-01-17 21:27:00,
2013-01-17 16:28:00,30.9,17.0,30.08,NNW,332,2.0,-999.0,56,0.00,,,0.00,Wunderground v.1.15,2013-01-17 21:28:00,
2013-01-17 16:30:00,30.9,17.0,30.08,NW,311,2.0,-999.0,56,0.00,,,0.00,Wunderground v.1.15,2013-01-17 21:30:00,
2013-01-17 16:32:00,30.7,16.8,30.09,North,357,1.0,-999.0,56,0.00,,,0.00,Wunderground v.1.15,2013-01-17 21:32:00,
2013-01-17 16:33:00,30.7,16.8,30.09,NNE,24,3.0,-999.0,56,0.00,,,0.00,Wunderground v.1.15,2013-01-17 21:33:00,
2013-01-17 16:35:00,30.7,16.8,30.09,NW,319,2.0,-999.0,56,0.00,,,0.00,Wunderground v.1.15,2013-01-17 21:35:00,
2013-01-17 16:37:00,30.7,16.8,30.09,WNW,302,1.0,-999.0,56,0.00,,,0.00,Wunderground v.1.15,2013-01-17 21:37:00,
2013-01-17 16:38:00,30.7,16.8,30.09,NW,323,5.0,-999.0,56,0.00,,,0.00,Wunderground v.1.15,2013-01-17 21:38:00,
2013-01-17 16:39:00,30.6,16.7,30.09,WNW,296,2.0,-999.0,56,0.00,,,0.00,Wunderground v.1.15,2013-01-17 21:39:00,
2013-01-17 16:41:00,30.6,16.7,30.09,WNW,285,0.0,-999.0,56,0.00,,,0.00,Wunderground v.1.15,2013-01-17 21:41:00,
2013-01-17 16:42:00,30.6,16.7,30.09,NW,309,4.0,-999.0,56,0.00,,,0.00,Wunderground v.1.15,2013-01-17 21:42:00,
2013-01-17 16:44:00,30.6,16.7,30.09,WNW,292,2.0,-999.0,56,0.00,,,0.00,Wunderground v.1.15,2013-01-17 21:44:00,
2013-01-17 16:46:00,30.6,16.7,30.09,WNW,301,5.0,-999.0,56,0.00,,,0.00,Wunderground v.1.15,2013-01-17 21:46:00,
2013-01-17 16:48:00,30.6,17.2,30.09,WNW,298,2.0,-999.0,57,0.00,,,0.00,Wunderground v.1.15,2013-01-17 21:48:00,
2013-01-17 16:49:00,30.6,17.2,30.09,West,277,3.0,-999.0,57,0.00,,,0.00,Wunderground v.1.15,2013-01-17 21:49:00,
2013-01-17 16:52:00,30.4,17.0,30.09,NNW,340,5.0,-999.0,57,0.00,,,0.00,Wunderground v.1.15,2013-01-17 21:52:00,
2013-01-17 16:53:00,30.4,17.0,30.09,WNW,294,0.0,-999.0,57,0.00,,,0.00,Wunderground v.1.15,2013-01-17 21:53:00,
2013-01-17 16:54:00,30.4,17.0,30.09,WNW,298,5.0,-999.0,57,0.00,,,0.00,Wunderground v.1.15,2013-01-17 21:54:00,
2013-01-17 16:55:00,30.3,16.9,30.09,NW,308,4.0,-999.0,57,0.00,,,0.00,Wunderground v.1.15,2013-01-17 21:55:00,
2013-01-17 16:57:00,30.3,17.3,30.09,WNW,302,6.0,-999.0,58,0.00,,,0.00,Wunderground v.1.15,2013-01-17 21:57:00,
2013-01-17 16:58:00,30.3,17.3,30.09,NW,320,4.0,-999.0,58,0.00,,,0.00,Wunderground v.1.15,2013-01-17 21:58:00,
2013-01-17 16:59:00,30.3,17.3,30.09,NW,309,3.0,-999.0,58,0.00,,,0.00,Wunderground v.1.15,2013-01-17 21:59:00,
2013-01-17 17:00:00,30.1,17.1,30.09,WNW,292,3.0,-999.0,58,0.00,,,0.00,Wunderground v.1.15,2013-01-17 22:00:00,
2013-01-17 17:02:00,30.1,17.1,30.10,WNW,296,3.0,-999.0,58,0.00,,,0.00,Wunderground v.1.15,2013-01-17 22:02:00,
2013-01-17 17:03:00,30.1,17.1,30.10,NW,318,2.0,-999.0,58,0.00,,,0.00,Wunderground v.1.15,2013-01-17 22:03:00,
2013-01-17 17:04:00,30.1,17.1,30.10,NNW,330,1.0,-999.0,58,0.00,,,0.00,Wunderground v.1.15,2013-01-17 22:04:00,
2013-01-17 17:05:00,30.1,17.1,30.10,NW,325,2.0,-999.0,58,0.00,,,0.00,Wunderground v.1.15,2013-01-17 22:05:00,
2013-01-17 17:08:00,30.0,17.0,30.10,NW,316,4.0,-999.0,58,0.00,,,0.00,Wunderground v.1.15,2013-01-17 22:08:00,
2013-01-17 17:09:00,30.0,17.0,30.10,NW,319,5.0,-999.0,58,0.00,,,0.00,Wunderground v.1.15,2013-01-17 22:09:00,
2013-01-17 17:10:00,30.0,17.0,30.10,NW,308,3.0,-999.0,58,0.00,,,0.00,Wunderground v.1.15,2013-01-17 22:10:00,
2013-01-17 17:14:00,29.8,16.8,30.10,NW,326,1.0,-999.0,58,0.00,,,0.00,Wunderground v.1.15,2013-01-17 22:14:00,
2013-01-17 17:15:00,29.8,16.8,30.11,West,280,5.0,-999.0,58,0.00,,,0.00,Wunderground v.1.15,2013-01-17 22:15:00,
2013-01-17 17:16:00,29.8,16.8,30.11,WNW,299,5.0,-999.0,58,0.00,,,0.00,Wunderground v.1.15,2013-01-17 22:16:00,
2013-01-17 17:19:00,29.7,16.7,30.11,NW,322,3.0,-999.0,58,0.00,,,0.00,Wunderground v.1.15,2013-01-17 22:19:00,
2013-01-17 17:20:00,29.7,16.7,30.11,WNW,299,3.0,-999.0,58,0.00,,,0.00,Wunderground v.1.15,2013-01-17 22:20:00,
2013-01-17 17:21:00,29.7,16.7,30.11,North,0,12.0,-999.0,58,0.00,,,0.00,Wunderground v.1.15,2013-01-17 22:21:00,
2013-01-17 17:22:00,29.7,16.7,30.11,NNW,333,5.0,-999.0,58,0.00,,,0.00,Wunderground v.1.15,2013-01-17 22:22:00,
2013-01-17 17:24:00,29.5,16.5,30.11,NW,305,5.0,-999.0,58,0.00,,,0.00,Wunderground v.1.15,2013-01-17 22:24:00,
2013-01-17 17:26:00,29.5,16.5,30.11,NW,305,2.0,-999.0,58,0.00,,,0.00,Wunderground v.1.15,2013-01-17 22:26:00,
2013-01-17 17:27:00,29.5,16.5,30.11,WNW,292,2.0,-999.0,58,0.00,,,0.00,Wunderground v.1.15,2013-01-17 22:27:00,
2013-01-17 17:29:00,29.5,16.5,30.11,NW,308,6.0,-999.0,58,0.00,,,0.00,Wunderground v.1.15,2013-01-17 22:29:00,
2013-01-17 17:31:00,29.4,16.0,30.11,NW,316,6.0,-999.0,57,0.00,,,0.00,Wunderground v.1.15,2013-01-17 22:31:00,
2013-01-17 17:33:00,29.4,16.0,30.11,NW,313,5.0,-999.0,57,0.00,,,0.00,Wunderground v.1.15,2013-01-17 22:33:00,
2013-01-17 17:34:00,29.4,15.6,30.11,NW,304,1.0,-999.0,56,0.00,,,0.00,Wunderground v.1.15,2013-01-17 22:34:00,
2013-01-17 17:36:00,29.3,15.5,30.11,WNW,289,8.0,-999.0,56,0.00,,,0.00,Wunderground v.1.15,2013-01-17 22:36:00,
2013-01-17 17:38:00,29.3,15.5,30.11,WNW,294,2.0,-999.0,56,0.00,,,0.00,Wunderground v.1.15,2013-01-17 22:38:00,
2013-01-17 17:40:00,29.3,15.5,30.11,NW,322,4.0,-999.0,56,0.00,,,0.00,Wunderground v.1.15,2013-01-17 22:40:00,
2013-01-17 17:41:00,29.1,15.3,30.11,NW,304,0.0,-999.0,56,0.00,,,0.00,Wunderground v.1.15,2013-01-17 22:41:00,
2013-01-17 17:42:00,29.1,15.3,30.11,WNW,292,3.0,-999.0,56,0.00,,,0.00,Wunderground v.1.15,2013-01-17 22:42:00,
2013-01-17 17:43:00,29.1,15.3,30.11,NW,318,0.0,-999.0,56,0.00,,,0.00,Wunderground v.1.15,2013-01-17 22:43:00,
2013-01-17 17:45:00,29.0,14.8,30.11,NNW,336,3.0,-999.0,55,0.00,,,0.00,Wunderground v.1.15,2013-01-17 22:45:00,
2013-01-17 17:47:00,29.0,14.8,30.12,WNW,291,7.0,-999.0,55,0.00,,,0.00,Wunderground v.1.15,2013-01-17 22:47:00,
2013-01-17 17:49:00,28.8,14.6,30.12,NW,309,4.0,-999.0,55,0.00,,,0.00,Wunderground v.1.15,2013-01-17 22:49:00,
2013-01-17 17:50:00,28.8,14.6,30.12,WNW,288,2.0,-999.0,55,0.00,,,0.00,Wunderground v.1.15,2013-01-17 22:50:00,
2013-01-17 17:52:00,28.8,14.6,30.12,NW,306,8.0,-999.0,55,0.00,,,0.00,Wunderground v.1.15,2013-01-17 22:52:00,
2013-01-17 17:54:00,28.7,14.6,30.12,WNW,287,5.0,-999.0,55,0.00,,,0.00,Wunderground v.1.15,2013-01-17 22:54:00,
2013-01-17 17:55:00,28.7,14.6,30.12,WNW,295,2.0,-999.0,55,0.00,,,0.00,Wunderground v.1.15,2013-01-17 22:55:00,
2013-01-17 17:58:00,28.7,14.6,30.12,WNW,299,6.0,-999.0,55,0.00,,,0.00,Wunderground v.1.15,2013-01-17 22:58:00,
2013-01-17 17:59:00,28.7,14.6,30.12,NNW,329,14.0,-999.0,55,0.00,,,0.00,Wunderground v.1.15,2013-01-17 22:59:00,
2013-01-17 18:01:00,28.7,15.0,30.14,NW,318,3.0,-999.0,56,0.00,,,0.00,Wunderground v.1.15,2013-01-17 23:01:00,
2013-01-17 18:03:00,28.5,14.8,30.14,NW,304,6.0,-999.0,56,0.00,,,0.00,Wunderground v.1.15,2013-01-17 23:03:00,
2013-01-17 18:05:00,28.5,14.8,30.14,NW,320,6.0,-999.0,56,0.00,,,0.00,Wunderground v.1.15,2013-01-17 23:05:00,
2013-01-17 18:06:00,28.4,15.1,30.14,WNW,299,3.0,-999.0,57,0.00,,,0.00,Wunderground v.1.15,2013-01-17 23:06:00,
2013-01-17 18:08:00,28.4,15.1,30.14,WNW,301,3.0,-999.0,57,0.00,,,0.00,Wunderground v.1.15,2013-01-17 23:08:00,
2013-01-17 18:09:00,28.4,15.1,30.14,NW,305,2.0,-999.0,57,0.00,,,0.00,Wunderground v.1.15,2013-01-17 23:09:00,
2013-01-17 18:11:00,28.4,15.5,30.14,WNW,288,5.0,-999.0,58,0.00,,,0.00,Wunderground v.1.15,2013-01-17 23:11:00,
2013-01-17 18:13:00,28.2,15.3,30.14,NW,305,7.0,-999.0,58,0.00,,,0.00,Wunderground v.1.15,2013-01-17 23:13:00,
2013-01-17 18:14:00,28.2,15.3,30.14,WNW,292,8.0,-999.0,58,0.00,,,0.00,Wunderground v.1.15,2013-01-17 23:14:00,
2013-01-17 18:16:00,28.1,15.2,30.14,West,274,8.0,-999.0,58,0.00,,,0.00,Wunderground v.1.15,2013-01-17 23:16:00,
2013-01-17 18:17:00,28.1,15.2,30.14,WNW,298,12.0,-999.0,58,0.00,,,0.00,Wunderground v.1.15,2013-01-17 23:17:00,
2013-01-17 18:19:00,27.9,15.4,30.14,WNW,301,6.0,-999.0,59,0.00,,,0.00,Wunderground v.1.15,2013-01-17 23:19:00,
2013-01-17 18:22:00,27.9,15.4,30.14,NW,313,5.0,-999.0,59,0.00,,,0.00,Wunderground v.1.15,2013-01-17 23:22:00,
2013-01-17 18:23:00,27.9,15.4,30.14,NW,325,6.0,-999.0,59,0.00,,,0.00,Wunderground v.1.15,2013-01-17 23:23:00,
2013-01-17 18:25:00,27.8,15.3,30.14,WNW,302,7.0,-999.0,59,0.00,,,0.00,Wunderground v.1.15,2013-01-17 23:25:00,
2013-01-17 18:27:00,27.8,15.7,30.14,West,280,3.0,-999.0,60,0.00,,,0.00,Wunderground v.1.15,2013-01-17 23:27:00,
2013-01-17 18:28:00,27.8,15.7,30.14,West,280,3.0,-999.0,60,0.00,,,0.00,Wunderground v.1.15,2013-01-17 23:28:00,
2013-01-17 18:30:00,27.8,16.1,30.14,NW,308,8.0,-999.0,61,0.00,,,0.00,Wunderground v.1.15,2013-01-17 23:30:00,
2013-01-17 18:33:00,27.5,16.2,30.15,NW,308,5.0,-999.0,62,0.00,,,0.00,Wunderground v.1.15,2013-01-17 23:33:00,
2013-01-17 18:35:00,27.5,16.2,30.15,NNW,336,7.0,-999.0,62,0.00,,,0.00,Wunderground v.1.15,2013-01-17 23:35:00,
2013-01-17 18:38:00,27.3,16.4,30.15,NW,325,1.0,-999.0,63,0.00,,,0.00,Wunderground v.1.15,2013-01-17 23:38:00,
2013-01-17 18:39:00,27.3,16.4,30.15,NW,306,6.0,-999.0,63,0.00,,,0.00,Wunderground v.1.15,2013-01-17 23:39:00,
2013-01-17 18:40:00,27.3,16.4,30.15,NW,306,6.0,-999.0,63,0.00,,,0.00,Wunderground v.1.15,2013-01-17 23:40:00,
2013-01-17 18:44:00,27.0,16.1,30.15,North,0,1.0,-999.0,63,0.00,,,0.00,Wunderground v.1.15,2013-01-17 23:44:00,
2013-01-17 18:45:00,27.0,16.1,30.16,NW,313,5.0,-999.0,63,0.00,,,0.00,Wunderground v.1.15,2013-01-17 23:45:00,
2013-01-17 18:46:00,27.0,16.1,30.16,NW,323,3.0,-999.0,63,0.00,,,0.00,Wunderground v.1.15,2013-01-17 23:46:00,
2013-01-17 18:49:00,26.9,16.0,30.16,NW,322,5.0,-999.0,63,0.00,,,0.00,Wunderground v.1.15,2013-01-17 23:49:00,
2013-01-17 18:50:00,26.7,15.8,30.16,NW,308,5.0,-999.0,63,0.00,,,0.00,Wunderground v.1.15,2013-01-17 23:50:00,
2013-01-17 18:51:00,26.7,15.8,30.16,NW,320,5.0,-999.0,63,0.00,,,0.00,Wunderground v.1.15,2013-01-17 23:51:00,
2013-01-17 18:54:00,26.6,16.1,30.16,NW,315,10.0,-999.0,64,0.00,,,0.00,Wunderground v.1.15,2013-01-17 23:54:00,
2013-01-17 18:55:00,26.6,16.1,30.16,NW,315,7.0,-999.0,64,0.00,,,0.00,Wunderground v.1.15,2013-01-17 23:55:00,
2013-01-17 18:56:00,26.6,16.1,30.16,NW,305,10.0,-999.0,64,0.00,,,0.00,Wunderground v.1.15,2013-01-17 23:56:00,
2013-01-17 18:57:00,26.6,16.1,30.16,WNW,287,5.0,-999.0,64,0.00,,,0.00,Wunderground v.1.15,2013-01-17 23:57:00,
2013-01-17 18:59:00,26.6,15.7,30.16,WNW,285,10.0,-999.0,63,0.00,,,0.00,Wunderground v.1.15,2013-01-17 23:59:00,
2013-01-17 19:00:00,26.6,15.7,30.16,NW,315,5.0,-999.0,63,0.00,,,0.00,Wunderground v.1.15,2013-01-18 00:00:00,
2013-01-17 19:02:00,26.4,15.5,30.17,WNW,292,10.0,-999.0,63,0.00,,,0.00,Wunderground v.1.15,2013-01-18 00:02:00,
2013-01-17 19:04:00,26.4,15.5,30.17,NW,304,7.0,-999.0,63,0.00,,,0.00,Wunderground v.1.15,2013-01-18 00:04:00,
2013-01-17 19:05:00,26.4,15.5,30.17,WNW,301,1.0,-999.0,63,0.00,,,0.00,Wunderground v.1.15,2013-01-18 00:05:00,
2013-01-17 19:07:00,26.4,15.5,30.17,WNW,302,3.0,-999.0,63,0.00,,,0.00,Wunderground v.1.15,2013-01-18 00:07:00,
2013-01-17 19:09:00,26.3,14.7,30.17,WNW,292,8.0,-999.0,61,0.00,,,0.00,Wunderground v.1.15,2013-01-18 00:09:00,
2013-01-17 19:11:00,26.3,14.7,30.17,NW,316,2.0,-999.0,61,0.00,,,0.00,Wunderground v.1.15,2013-01-18 00:11:00,
2013-01-17 19:12:00,26.1,14.5,30.17,NW,315,6.0,-999.0,61,0.00,,,0.00,Wunderground v.1.15,2013-01-18 00:12:00,
2013-01-17 19:13:00,26.1,14.5,30.17,WNW,288,9.0,-999.0,61,0.00,,,0.00,Wunderground v.1.15,2013-01-18 00:13:00,
2013-01-17 19:14:00,26.1,14.1,30.17,West,275,8.0,-999.0,60,0.00,,,0.00,Wunderground v.1.15,2013-01-18 00:14:00,
2013-01-17 19:16:00,26.1,14.1,30.18,NW,304,5.0,-999.0,60,0.00,,,0.00,Wunderground v.1.15,2013-01-18 00:16:00,
2013-01-17 19:17:00,26.1,14.1,30.18,NW,323,1.0,-999.0,60,0.00,,,0.00,Wunderground v.1.15,2013-01-18 00:17:00,
2013-01-17 19:18:00,26.1,14.1,30.18,NW,322,3.0,-999.0,60,0.00,,,0.00,Wunderground v.1.15,2013-01-18 00:18:00,
2013-01-17 19:19:00,26.0,14.0,30.18,WNW,287,3.0,-999.0,60,0.00,,,0.00,Wunderground v.1.15,2013-01-18 00:19:00,
2013-01-17 19:21:00,26.0,14.0,30.18,NW,311,3.0,-999.0,60,0.00,,,0.00,Wunderground v.1.15,2013-01-18 00:21:00,
2013-01-17 19:22:00,26.0,14.0,30.18,NNW,329,7.0,-999.0,60,0.00,,,0.00,Wunderground v.1.15,2013-01-18 00:22:00,
2013-01-17 19:23:00,26.0,14.0,30.18,WNW,302,2.0,-999.0,60,0.00,,,0.00,Wunderground v.1.15,2013-01-18 00:23:00,
2013-01-17 19:25:00,25.8,13.8,30.18,NNW,339,2.0,-999.0,60,0.00,,,0.00,Wunderground v.1.15,2013-01-18 00:25:00,
2013-01-17 19:27:00,25.8,13.8,30.18,NNW,336,8.0,-999.0,60,0.00,,,0.00,Wunderground v.1.15,2013-01-18 00:27:00,
2013-01-17 19:28:00,25.7,13.7,30.18,NNW,329,1.0,-999.0,60,0.00,,,0.00,Wunderground v.1.15,2013-01-18 00:28:00,
2013-01-17 19:31:00,25.6,13.6,30.19,NW,306,3.0,-999.0,60,0.00,,,0.00,Wunderground v.1.15,2013-01-18 00:31:00,
2013-01-17 19:33:00,25.6,13.6,30.19,West,281,3.0,-999.0,60,0.00,,,0.00,Wunderground v.1.15,2013-01-18 00:33:00,
2013-01-17 19:34:00,25.4,13.4,30.19,NW,323,6.0,-999.0,60,0.00,,,0.00,Wunderground v.1.15,2013-01-18 00:34:00,
2013-01-17 19:36:00,25.4,13.1,30.19,NNW,344,6.0,-999.0,59,0.00,,,0.00,Wunderground v.1.15,2013-01-18 00:36:00,
2013-01-17 19:38:00,25.3,13.0,30.19,NNW,330,12.0,-999.0,59,0.00,,,0.00,Wunderground v.1.15,2013-01-18 00:38:00,
2013-01-17 19:39:00,25.3,13.0,30.19,NW,304,10.0,-999.0,59,0.00,,,0.00,Wunderground v.1.15,2013-01-18 00:39:00,
2013-01-17 19:41:00,25.1,12.4,30.19,NNW,329,8.0,-999.0,58,0.00,,,0.00,Wunderground v.1.15,2013-01-18 00:41:00,
2013-01-17 19:43:00,25.0,12.7,30.19,WNW,296,6.0,-999.0,59,0.00,,,0.00,Wunderground v.1.15,2013-01-18 00:43:00,
2013-01-17 19:44:00,25.0,12.7,30.19,NW,320,8.0,-999.0,59,0.00,,,0.00,Wunderground v.1.15,2013-01-18 00:44:00,
2013-01-17 19:47:00,24.8,12.5,30.20,NW,315,5.0,-999.0,59,0.00,,,0.00,Wunderground v.1.15,2013-01-18 00:47:00,
2013-01-17 19:49:00,24.8,12.5,30.20,WNW,289,7.0,-999.0,59,0.00,,,0.00,Wunderground v.1.15,2013-01-18 00:49:00,
2013-01-17 19:50:00,24.8,12.9,30.20,NNW,342,8.0,-999.0,60,0.00,,,0.00,Wunderground v.1.15,2013-01-18 00:50:00,
2013-01-17 19:53:00,24.8,12.9,30.20,NW,312,10.0,-999.0,60,0.00,,,0.00,Wunderground v.1.15,2013-01-18 00:53:00,
2013-01-17 19:55:00,24.7,12.8,30.20,NW,318,10.0,-999.0,60,0.00,,,0.00,Wunderground v.1.15,2013-01-18 00:55:00,
2013-01-17 19:56:00,24.5,12.2,30.20,NNW,336,11.0,-999.0,59,0.00,,,0.00,Wunderground v.1.15,2013-01-18 00:56:00,
2013-01-17 19:58:00,24.4,12.1,30.20,NW,312,8.0,-999.0,59,0.00,,,0.00,Wunderground v.1.15,2013-01-18 00:58:00,
2013-01-17 20:00:00,24.2,11.9,30.21,NW,325,6.0,-999.0,59,0.00,,,0.00,Wunderground v.1.15,2013-01-18 01:00:00,
2013-01-17 20:01:00,24.2,11.5,30.21,NW,322,6.0,-999.0,58,0.00,,,0.00,Wunderground v.1.15,2013-01-18 01:01:00,
2013-01-17 20:02:00,24.2,11.5,30.21,NW,322,6.0,-999.0,58,0.00,,,0.00,Wunderground v.1.15,2013-01-18 01:02:00,
2013-01-17 20:03:00,24.1,11.4,30.21,WNW,288,7.0,-999.0,58,0.00,,,0.00,Wunderground v.1.15,2013-01-18 01:03:00,
2013-01-17 20:05:00,23.9,11.3,30.21,NW,306,16.0,-999.0,58,0.00,,,0.00,Wunderground v.1.15,2013-01-18 01:05:00,
2013-01-17 20:06:00,23.9,10.9,30.21,North,354,6.0,-999.0,57,0.00,,,0.00,Wunderground v.1.15,2013-01-18 01:06:00,
2013-01-17 20:07:00,23.6,10.2,30.21,NW,325,8.0,-999.0,56,0.00,,,0.00,Wunderground v.1.15,2013-01-18 01:07:00,
2013-01-17 20:08:00,23.5,10.1,30.21,NW,305,7.0,-999.0,56,0.00,,,0.00,Wunderground v.1.15,2013-01-18 01:08:00,
2013-01-17 20:11:00,23.2,9.8,30.21,NW,304,12.0,-999.0,56,0.00,,,0.00,Wunderground v.1.15,2013-01-18 01:11:00,
2013-01-17 20:12:00,23.2,9.8,30.21,NNW,342,7.0,-999.0,56,0.00,,,0.00,Wunderground v.1.15,2013-01-18 01:12:00,
2013-01-17 20:14:00,22.9,9.5,30.21,NW,313,16.0,-999.0,56,0.00,,,0.00,Wunderground v.1.15,2013-01-18 01:14:00,
2013-01-17 20:16:00,22.5,9.1,30.22,WNW,298,3.0,-999.0,56,0.00,,,0.00,Wunderground v.1.15,2013-01-18 01:16:00,
2013-01-17 20:17:00,22.5,6.2,30.22,West,278,11.0,-999.0,49,0.00,,,0.00,Wunderground v.1.15,2013-01-18 01:17:00,
2013-01-17 20:19:00,22.4,6.1,30.22,NNW,344,7.0,-999.0,49,0.00,,,0.00,Wunderground v.1.15,2013-01-18 01:19:00,
2013-01-17 20:21:00,22.2,5.9,30.22,NNW,339,3.0,-999.0,49,0.00,,,0.00,Wunderground v.1.15,2013-01-18 01:21:00,
2013-01-17 20:22:00,22.2,5.9,30.22,NNW,342,7.0,-999.0,49,0.00,,,0.00,Wunderground v.1.15,2013-01-18 01:22:00,
2013-01-17 20:24:00,22.1,5.8,30.22,NW,322,8.0,-999.0,49,0.00,,,0.00,Wunderground v.1.15,2013-01-18 01:24:00,
2013-01-17 20:27:00,21.9,5.2,30.22,NW,308,10.0,-999.0,48,0.00,,,0.00,Wunderground v.1.15,2013-01-18 01:27:00,
2013-01-17 20:28:00,21.9,5.6,30.22,North,0,7.0,-999.0,49,0.00,,,0.00,Wunderground v.1.15,2013-01-18 01:28:00,
2013-01-17 20:30:00,21.8,5.5,30.22,NW,311,18.0,-999.0,49,0.00,,,0.00,Wunderground v.1.15,2013-01-18 01:30:00,
2013-01-17 20:32:00,21.6,4.9,30.24,NW,309,3.0,-999.0,48,0.00,,,0.00,Wunderground v.1.15,2013-01-18 01:32:00,
2013-01-17 20:33:00,21.6,4.9,30.24,West,267,3.0,-999.0,48,0.00,,,0.00,Wunderground v.1.15,2013-01-18 01:33:00,
2013-01-17 20:36:00,21.4,4.7,30.24,WNW,292,3.0,-999.0,48,0.00,,,0.00,Wunderground v.1.15,2013-01-18 01:36:00,
2013-01-17 20:37:00,21.4,4.7,30.24,WNW,288,8.0,-999.0,48,0.00,,,0.00,Wunderground v.1.15,2013-01-18 01:37:00,
2013-01-17 20:38:00,21.4,4.7,30.24,NNW,340,0.0,-999.0,48,0.00,,,0.00,Wunderground v.1.15,2013-01-18 01:38:00,
2013-01-17 20:39:00,21.4,4.7,30.24,NNW,346,3.0,-999.0,48,0.00,,,0.00,Wunderground v.1.15,2013-01-18 01:39:00,
2013-01-17 20:41:00,21.3,4.6,30.24,NW,312,2.0,-999.0,48,0.00,,,0.00,Wunderground v.1.15,2013-01-18 01:41:00,
2013-01-17 20:42:00,21.3,4.6,30.24,NW,305,7.0,-999.0,48,0.00,,,0.00,Wunderground v.1.15,2013-01-18 01:42:00,
2013-01-17 20:43:00,21.1,4.4,30.24,WNW,285,3.0,-999.0,48,0.00,,,0.00,Wunderground v.1.15,2013-01-18 01:43:00,
2013-01-17 20:45:00,21.1,4.0,30.24,NW,304,3.0,-999.0,47,0.00,,,0.00,Wunderground v.1.15,2013-01-18 01:45:00,
2013-01-17 20:47:00,21.1,4.0,30.24,NW,305,13.0,-999.0,47,0.00,,,0.00,Wunderground v.1.15,2013-01-18 01:47:00,
2013-01-17 20:48:00,21.0,3.4,30.24,WNW,294,6.0,-999.0,46,0.00,,,0.00,Wunderground v.1.15,2013-01-18 01:48:00,
2013-01-17 20:50:00,21.0,3.4,30.24,NW,306,3.0,-999.0,46,0.00,,,0.00,Wunderground v.1.15,2013-01-18 01:50:00,
2013-01-17 20:52:00,21.0,3.4,30.24,WNW,299,3.0,-999.0,46,0.00,,,0.00,Wunderground v.1.15,2013-01-18 01:52:00,
2013-01-17 20:53:00,20.8,3.2,30.24,WNW,292,5.0,-999.0,46,0.00,,,0.00,Wunderground v.1.15,2013-01-18 01:53:00,
2013-01-17 20:54:00,20.8,3.2,30.24,NW,315,10.0,-999.0,46,0.00,,,0.00,Wunderground v.1.15,2013-01-18 01:54:00,
2013-01-17 20:55:00,20.8,3.2,30.24,NW,319,10.0,-999.0,46,0.00,,,0.00,Wunderground v.1.15,2013-01-18 01:55:00,
2013-01-17 20:57:00,20.6,3.1,30.24,NW,318,3.0,-999.0,46,0.00,,,0.00,Wunderground v.1.15,2013-01-18 01:57:00,
2013-01-17 20:58:00,20.6,3.1,30.24,NNW,339,5.0,-999.0,46,0.00,,,0.00,Wunderground v.1.15,2013-01-18 01:58:00,
2013-01-17 20:59:00,20.6,3.1,30.24,NW,313,3.0,-999.0,46,0.00,,,0.00,Wunderground v.1.15,2013-01-18 01:59:00,
2013-01-17 21:01:00,20.6,3.1,30.24,NW,306,6.0,-999.0,46,0.00,,,0.00,Wunderground v.1.15,2013-01-18 02:01:00,
2013-01-17 21:03:00,20.5,3.0,30.24,NW,304,7.0,-999.0,46,0.00,,,0.00,Wunderground v.1.15,2013-01-18 02:03:00,
2013-01-17 21:04:00,20.5,3.4,30.24,NW,320,10.0,-999.0,47,0.00,,,0.00,Wunderground v.1.15,2013-01-18 02:04:00,
2013-01-17 21:08:00,20.3,3.2,30.24,NW,312,5.0,-999.0,47,0.00,,,0.00,Wunderground v.1.15,2013-01-18 02:08:00,
2013-01-17 21:09:00,20.3,4.2,30.24,WNW,296,7.0,-999.0,49,0.00,,,0.00,Wunderground v.1.15,2013-01-18 02:09:00,
2013-01-17 21:13:00,20.3,4.2,30.24,NW,308,7.0,-999.0,49,0.00,,,0.00,Wunderground v.1.15,2013-01-18 02:13:00,
2013-01-17 21:14:00,20.2,4.1,30.24,NW,315,7.0,-999.0,49,0.00,,,0.00,Wunderground v.1.15,2013-01-18 02:14:00,
2013-01-17 21:15:00,20.2,4.1,30.24,NNW,343,6.0,-999.0,49,0.00,,,0.00,Wunderground v.1.15,2013-01-18 02:15:00,
2013-01-17 21:18:00,20.0,3.9,30.25,North,356,3.0,-999.0,49,0.00,,,0.00,Wunderground v.1.15,2013-01-18 02:18:00,
2013-01-17 21:19:00,20.0,3.9,30.25,NW,320,3.0,-999.0,49,0.00,,,0.00,Wunderground v.1.15,2013-01-18 02:19:00,
2013-01-17 21:20:00,20.0,3.4,30.25,NW,322,12.0,-999.0,48,0.00,,,0.00,Wunderground v.1.15,2013-01-18 02:20:00,
2013-01-17 21:21:00,20.0,3.4,30.25,NNW,332,4.0,-999.0,48,0.00,,,0.00,Wunderground v.1.15,2013-01-18 02:21:00,
2013-01-17 21:23:00,19.9,2.9,30.25,North,0,5.0,-999.0,47,0.00,,,0.00,Wunderground v.1.15,2013-01-18 02:23:00,
2013-01-17 21:24:00,19.9,2.4,30.25,North,349,2.0,-999.0,46,0.00,,,0.00,Wunderground v.1.15,2013-01-18 02:24:00,
2013-01-17 21:25:00,19.9,2.4,30.25,WNW,291,6.0,-999.0,46,0.00,,,0.00,Wunderground v.1.15,2013-01-18 02:25:00,
2013-01-17 21:26:00,19.9,2.4,30.25,NW,312,5.0,-999.0,46,0.00,,,0.00,Wunderground v.1.15,2013-01-18 02:26:00,
2013-01-17 21:29:00,19.7,2.2,30.25,NNW,332,3.0,-999.0,46,0.00,,,0.00,Wunderground v.1.15,2013-01-18 02:29:00,
2013-01-17 21:31:00,19.7,2.2,30.25,NW,308,10.0,-999.0,46,0.00,,,0.00,Wunderground v.1.15,2013-01-18 02:31:00,
2013-01-17 21:35:00,19.7,2.2,30.25,WNW,296,5.0,-999.0,46,0.00,,,0.00,Wunderground v.1.15,2013-01-18 02:35:00,
2013-01-17 21:36:00,19.7,2.2,30.25,NW,311,5.0,-999.0,46,0.00,,,0.00,Wunderground v.1.15,2013-01-18 02:36:00,
2013-01-17 21:37:00,19.7,2.2,30.25,NNW,329,8.0,-999.0,46,0.00,,,0.00,Wunderground v.1.15,2013-01-18 02:37:00,
2013-01-17 21:40:00,19.5,2.0,30.25,NW,322,3.0,-999.0,46,0.00,,,0.00,Wunderground v.1.15,2013-01-18 02:40:00,
2013-01-17 21:41:00,19.5,2.0,30.25,NW,313,2.0,-999.0,46,0.00,,,0.00,Wunderground v.1.15,2013-01-18 02:41:00,
2013-01-17 21:42:00,19.5,2.0,30.25,North,0,8.0,-999.0,46,0.00,,,0.00,Wunderground v.1.15,2013-01-18 02:42:00,
2013-01-17 21:45:00,19.5,2.0,30.26,WNW,292,0.0,-999.0,46,0.00,,,0.00,Wunderground v.1.15,2013-01-18 02:45:00,
2013-01-17 21:46:00,19.5,2.0,30.26,NW,311,0.0,-999.0,46,0.00,,,0.00,Wunderground v.1.15,2013-01-18 02:46:00,
2013-01-17 21:47:00,19.5,2.0,30.26,WNW,288,1.0,-999.0,46,0.00,,,0.00,Wunderground v.1.15,2013-01-18 02:47:00,
2013-01-17 21:48:00,19.5,2.0,30.26,NNW,333,0.0,-999.0,46,0.00,,,0.00,Wunderground v.1.15,2013-01-18 02:48:00,
2013-01-17 21:50:00,19.4,2.0,30.26,NW,323,10.0,-999.0,46,0.00,,,0.00,Wunderground v.1.15,2013-01-18 02:50:00,
2013-01-17 21:51:00,19.4,2.0,30.26,NNW,336,6.0,-999.0,46,0.00,,,0.00,Wunderground v.1.15,2013-01-18 02:51:00,
2013-01-17 21:53:00,19.4,2.0,30.26,North,3,2.0,-999.0,46,0.00,,,0.00,Wunderground v.1.15,2013-01-18 02:53:00,
2013-01-17 21:57:00,19.4,2.0,30.26,NW,312,5.0,-999.0,46,0.00,,,0.00,Wunderground v.1.15,2013-01-18 02:57:00,
2013-01-17 21:58:00,19.4,2.0,30.26,NW,318,2.0,-999.0,46,0.00,,,0.00,Wunderground v.1.15,2013-01-18 02:58:00,
2013-01-17 22:02:00,19.4,1.5,30.26,WNW,287,5.0,-999.0,45,0.00,,,0.00,Wunderground v.1.15,2013-01-18 03:02:00,
2013-01-17 22:03:00,19.4,1.5,30.26,NNW,336,0.0,-999.0,45,0.00,,,0.00,Wunderground v.1.15,2013-01-18 03:03:00,
2013-01-17 22:04:00,19.4,1.5,30.26,North,0,9.0,-999.0,45,0.00,,,0.00,Wunderground v.1.15,2013-01-18 03:04:00,
2013-01-17 22:07:00,19.4,1.5,30.26,WNW,301,8.0,-999.0,45,0.00,,,0.00,Wunderground v.1.15,2013-01-18 03:07:00,
2013-01-17 22:08:00,19.2,1.3,30.26,NW,309,3.0,-999.0,45,0.00,,,0.00,Wunderground v.1.15,2013-01-18 03:08:00,
2013-01-17 22:09:00,19.2,1.3,30.26,NW,309,3.0,-999.0,45,0.00,,,0.00,Wunderground v.1.15,2013-01-18 03:09:00,
2013-01-17 22:13:00,19.2,1.3,30.26,WNW,292,2.0,-999.0,45,0.00,,,0.00,Wunderground v.1.15,2013-01-18 03:13:00,
2013-01-17 22:14:00,19.2,1.3,30.26,NNW,329,8.0,-999.0,45,0.00,,,0.00,Wunderground v.1.15,2013-01-18 03:14:00,
2013-01-17 22:19:00,19.2,0.8,30.26,NW,311,2.0,-999.0,44,0.00,,,0.00,Wunderground v.1.15,2013-01-18 03:19:00,
2013-01-17 22:24:00,19.1,0.7,30.26,NW,316,0.0,-999.0,44,0.00,,,0.00,Wunderground v.1.15,2013-01-18 03:24:00,
2013-01-17 22:25:00,19.1,0.7,30.26,NW,316,0.0,-999.0,44,0.00,,,0.00,Wunderground v.1.15,2013-01-18 03:25:00,
2013-01-17 22:30:00,19.1,1.2,30.26,North,0,2.0,-999.0,45,0.00,,,0.00,Wunderground v.1.15,2013-01-18 03:30:00,
2013-01-17 22:31:00,19.1,1.2,30.26,WNW,288,2.0,-999.0,45,0.00,,,0.00,Wunderground v.1.15,2013-01-18 03:31:00,
2013-01-17 22:35:00,18.9,1.0,30.26,West,271,3.0,-999.0,45,0.00,,,0.00,Wunderground v.1.15,2013-01-18 03:35:00,
2013-01-17 22:36:00,18.8,0.9,30.26,NNW,330,3.0,-999.0,45,0.00,,,0.00,Wunderground v.1.15,2013-01-18 03:36:00,
2013-01-17 22:37:00,18.8,0.9,30.26,NNW,330,3.0,-999.0,45,0.00,,,0.00,Wunderground v.1.15,2013-01-18 03:37:00,
2013-01-17 22:40:00,18.8,0.9,30.26,North,0,3.0,-999.0,45,0.00,,,0.00,Wunderground v.1.15,2013-01-18 03:40:00,
2013-01-17 22:41:00,18.8,0.9,30.26,NW,315,3.0,-999.0,45,0.00,,,0.00,Wunderground v.1.15,2013-01-18 03:41:00,
2013-01-17 22:42:00,18.8,1.4,30.26,NW,318,3.0,-999.0,46,0.00,,,0.00,Wunderground v.1.15,2013-01-18 03:42:00,
2013-01-17 22:45:00,18.8,1.4,30.26,NW,306,1.0,-999.0,46,0.00,,,0.00,Wunderground v.1.15,2013-01-18 03:45:00,
2013-01-17 22:46:00,18.6,1.2,30.26,NW,306,1.0,-999.0,46,0.00,,,0.00,Wunderground v.1.15,2013-01-18 03:46:00,
2013-01-17 22:47:00,18.6,1.2,30.26,North,0,1.0,-999.0,46,0.00,,,0.00,Wunderground v.1.15,2013-01-18 03:47:00,
2013-01-17 22:48:00,18.6,1.2,30.26,NNW,336,1.0,-999.0,46,0.00,,,0.00,Wunderground v.1.15,2013-01-18 03:48:00,
2013-01-17 22:51:00,18.6,1.2,30.26,North,7,3.0,-999.0,46,0.00,,,0.00,Wunderground v.1.15,2013-01-18 03:51:00,
2013-01-17 22:52:00,18.6,1.2,30.26,NNW,335,3.0,-999.0,46,0.00,,,0.00,Wunderground v.1.15,2013-01-18 03:52:00,
2013-01-17 22:53:00,18.6,1.2,30.26,NW,315,2.0,-999.0,46,0.00,,,0.00,Wunderground v.1.15,2013-01-18 03:53:00,
2013-01-17 22:57:00,18.6,1.2,30.26,NW,315,0.0,-999.0,46,0.00,,,0.00,Wunderground v.1.15,2013-01-18 03:57:00,
2013-01-17 22:58:00,18.6,1.2,30.26,WNW,291,4.0,-999.0,46,0.00,,,0.00,Wunderground v.1.15,2013-01-18 03:58:00,
2013-01-17 23:02:00,18.6,1.7,30.26,WNW,298,1.0,-999.0,47,0.00,,,0.00,Wunderground v.1.15,2013-01-18 04:02:00,
2013-01-17 23:03:00,18.6,1.7,30.26,WNW,302,5.0,-999.0,47,0.00,,,0.00,Wunderground v.1.15,2013-01-18 04:03:00,
2013-01-17 23:07:00,18.4,1.5,30.26,NW,315,0.0,-999.0,47,0.00,,,0.00,Wunderground v.1.15,2013-01-18 04:07:00,
2013-01-17 23:08:00,18.4,1.5,30.26,NW,315,0.0,-999.0,47,0.00,,,0.00,Wunderground v.1.15,2013-01-18 04:08:00,
2013-01-17 23:12:00,18.4,2.0,30.26,NW,319,1.0,-999.0,48,0.00,,,0.00,Wunderground v.1.15,2013-01-18 04:12:00,
2013-01-17 23:13:00,18.4,2.0,30.26,NW,318,2.0,-999.0,48,0.00,,,0.00,Wunderground v.1.15,2013-01-18 04:13:00,
2013-01-17 23:17:00,18.3,1.9,30.26,WNW,301,6.0,-999.0,48,0.00,,,0.00,Wunderground v.1.15,2013-01-18 04:17:00,
2013-01-17 23:18:00,18.3,1.9,30.26,WNW,301,3.0,-999.0,48,0.00,,,0.00,Wunderground v.1.15,2013-01-18 04:18:00,
2013-01-17 23:19:00,18.3,1.9,30.26,NW,306,2.0,-999.0,48,0.00,,,0.00,Wunderground v.1.15,2013-01-18 04:19:00,
2013-01-17 23:22:00,18.3,1.9,30.26,NW,315,3.0,-999.0,48,0.00,,,0.00,Wunderground v.1.15,2013-01-18 04:22:00,
2013-01-17 23:23:00,18.3,1.9,30.26,North,350,0.0,-999.0,48,0.00,,,0.00,Wunderground v.1.15,2013-01-18 04:23:00,
2013-01-17 23:24:00,18.3,1.9,30.26,NW,316,0.0,-999.0,48,0.00,,,0.00,Wunderground v.1.15,2013-01-18 04:24:00,
2013-01-17 23:25:00,18.3,1.9,30.26,NW,316,3.0,-999.0,48,0.00,,,0.00,Wunderground v.1.15,2013-01-18 04:25:00,
2013-01-17 23:29:00,18.1,2.1,30.26,WNW,299,1.0,-999.0,49,0.00,,,0.00,Wunderground v.1.15,2013-01-18 04:29:00,
2013-01-17 23:30:00,18.1,2.1,30.26,NW,325,0.0,-999.0,49,0.00,,,0.00,Wunderground v.1.15,2013-01-18 04:30:00,
2013-01-17 23:34:00,18.1,2.6,30.26,NW,306,0.0,-999.0,50,0.00,,,0.00,Wunderground v.1.15,2013-01-18 04:34:00,
2013-01-17 23:35:00,18.1,2.6,30.26,NW,306,0.0,-999.0,50,0.00,,,0.00,Wunderground v.1.15,2013-01-18 04:35:00,
2013-01-17 23:39:00,18.0,2.5,30.26,WNW,289,5.0,-999.0,50,0.00,,,0.00,Wunderground v.1.15,2013-01-18 04:39:00,
2013-01-17 23:40:00,18.0,2.5,30.26,NW,311,3.0,-999.0,50,0.00,,,0.00,Wunderground v.1.15,2013-01-18 04:40:00,
2013-01-17 23:41:00,18.0,2.5,30.26,NW,309,2.0,-999.0,50,0.00,,,0.00,Wunderground v.1.15,2013-01-18 04:41:00,
2013-01-17 23:44:00,18.0,2.5,30.26,NNW,336,0.0,-999.0,50,0.00,,,0.00,Wunderground v.1.15,2013-01-18 04:44:00,
2013-01-17 23:45:00,18.0,2.5,30.26,NW,312,2.0,-999.0,50,0.00,,,0.00,Wunderground v.1.15,2013-01-18 04:45:00,
2013-01-17 23:46:00,18.0,2.5,30.27,NW,312,1.0,-999.0,50,0.00,,,0.00,Wunderground v.1.15,2013-01-18 04:46:00,
2013-01-17 23:49:00,18.0,2.5,30.27,WNW,295,2.0,-999.0,50,0.00,,,0.00,Wunderground v.1.15,2013-01-18 04:49:00,
2013-01-17 23:50:00,18.0,2.5,30.27,NW,312,5.0,-999.0,50,0.00,,,0.00,Wunderground v.1.15,2013-01-18 04:50:00,
2013-01-17 23:51:00,18.0,2.5,30.27,NW,315,6.0,-999.0,50,0.00,,,0.00,Wunderground v.1.15,2013-01-18 04:51:00,
2013-01-17 23:55:00,18.0,2.5,30.27,North,0,0.0,-999.0,50,0.00,,,0.00,Wunderground v.1.15,2013-01-18 04:55:00,
2013-01-17 23:56:00,18.0,2.5,30.27,NNW,335,0.0,-999.0,50,0.00,,,0.00,Wunderground v.1.15,2013-01-18 04:56:00,